GFSNE_250_spd_000.txt.gz
Wind_Speed
88 88 89 92 95 93 91 93 91 83 81 88 97 104 108 112 116 119 123 126 130 134 138 138 138 139 137 136 137 137 135 133 132 134 137 136 133 132
90 92 95 95 93 94 94 93 97 99 93 99 105 111 115 120 125 128 132 134 136 136 135 131 127 125 124 122 121 120 119 117 116 117 117 120 123 126
95 96 94 94 95 93 95 99 104 112 113 109 117 121 125 126 129 132 133 128 120 117 113 110 107 109 110 111 111 111 111 109 108 106 106 105 104 104
97 95 94 93 94 99 104 109 114 120 123 124 123 129 131 131 126 117 112 109 105 102 100 96 96 96 97 95 97 99 99 99 98 96 96 96 93 94
96 93 92 96 103 109 115 119 123 126 128 131 128 126 118 113 106 104 101 96 92 90 85 82 80 81 82 81 83 84 85 86 87 87 87 87 88 89
93 96 102 107 113 119 124 126 127 128 128 124 117 107 101 97 95 90 90 87 84 78 77 75 76 72 72 73 76 77 77 77 78 80 80 80 81 82
99 105 112 118 123 127 127 126 125 119 113 108 101 97 91 88 85 83 78 76 78 69 72 73 69 68 69 69 70 71 71 70 68 70 72 71 72 76
107 115 122 126 129 130 127 119 113 107 99 95 90 85 83 80 77 75 71 69 69 64 66 67 60 62 59 58 58 59 60 59 58 59 62 62 64 68
118 124 128 131 129 121 112 106 103 101 94 85 79 78 75 72 69 69 65 63 61 61 62 58 53 50 49 48 48 47 47 47 48 48 49 53 54 59
126 132 132 125 117 109 101 97 95 91 85 81 75 71 68 67 66 63 60 58 54 51 52 50 44 43 40 40 41 41 41 40 41 41 41 43 46 50
133 133 123 113 105 100 95 90 87 83 79 74 70 67 64 61 59 59 56 52 47 45 43 42 38 37 34 34 34 35 34 33 33 34 35 37 39 42
130 124 114 107 100 94 88 82 79 75 73 68 63 59 56 54 51 50 47 44 41 37 37 33 32 31 31 29 28 28 25 23 23 26 28 30 32 36
120 113 105 100 95 88 83 78 73 68 64 61 56 53 50 45 42 40 38 35 32 31 29 28 25 25 26 26 24 21 17 15 16 17 19 24 27 31
112 105 97 92 87 82 79 73 65 61 57 53 49 46 41 38 35 32 30 29 27 24 21 21 21 21 21 21 18 15 12 11 11 10 14 17 23 28
105 98 91 85 82 77 70 64 58 55 51 45 41 37 32 31 28 25 23 21 20 18 17 15 15 17 18 16 13 9 7 6 6 8 13 17 18 22
97 90 84 81 77 69 61 57 52 48 43 38 34 29 27 24 23 21 17 17 17 15 15 14 12 11 12 12 10 6 4 4 7 9 13 17 21 22
86 82 80 75 66 59 53 50 46 41 37 33 28 24 21 20 18 18 17 16 14 13 12 12 10 9 9 9 8 7 6 5 7 10 13 17 21 26
80 78 74 65 58 52 48 44 39 35 31 27 25 22 19 18 16 16 16 16 13 10 8 8 8 7 8 7 7 8 6 7 10 12 15 18 22 25
76 71 63 56 50 47 42 38 33 30 27 26 22 20 18 17 16 14 13 14 12 10 7 5 4 6 8 8 7 7 8 7 9 12 15 17 20 24
70 63 56 48 45 40 36 32 29 28 25 23 21 19 18 17 16 14 11 12 12 11 10 6 2 2 5 6 7 8 9 8 11 11 14 17 20 23
62 54 47 44 40 36 32 30 28 24 21 20 19 18 18 17 15 14 12 10 10 10 9 7 5 1 3 5 7 9 10 12 13 15 14 15 17 21
53 46 44 39 36 32 31 28 25 22 21 19 18 17 17 17 15 14 13 12 8 8 7 5 4 4 2 5 8 9 13 13 15 17 18 19 19 19
45 42 38 35 32 31 28 25 23 23 22 21 20 18 17 16 17 15 12 10 9 6 6 5 1 3 3 5 9 10 13 14 13 15 18 19 21 23

GFSNE_250_spd_003.txt.gz
Wind_Speed
105 107 100 93 92 95 97 95 90 80 80 85 88 93 99 104 110 114 117 120 123 126 128 129 131 132 131 129 129 128 129 127 129 130 131 132 134 136
109 100 96 98 99 96 96 96 95 93 85 92 98 104 110 115 119 123 126 128 129 129 129 129 131 128 125 123 123 124 123 122 123 123 123 125 130 134
103 100 102 98 97 100 96 95 99 105 109 105 115 120 123 125 126 128 129 127 122 122 119 115 110 106 105 106 107 108 108 110 109 108 108 108 112 114
103 104 99 100 100 96 99 103 110 118 123 124 121 125 128 128 122 116 112 108 104 103 103 100 98 98 100 100 100 100 100 100 102 102 101 100 100 103
105 101 102 98 98 102 108 115 121 125 131 133 123 117 112 110 105 102 99 98 96 95 94 90 88 88 89 88 87 87 87 87 87 90 89 88 89 88
103 102 98 102 107 112 118 124 128 132 128 117 108 103 100 98 95 91 91 89 86 86 81 78 78 79 75 74 76 77 77 77 77 79 80 80 80 80
101 101 106 111 117 123 128 129 128 120 109 103 98 95 92 88 86 84 80 78 77 74 69 75 69 70 69 70 69 69 69 69 70 71 73 73 74 75
103 108 115 120 126 131 131 124 116 106 96 90 89 86 85 80 78 74 69 67 68 63 66 69 63 64 63 63 62 61 60 60 59 60 62 64 66 68
111 117 123 129 132 126 119 113 106 100 95 88 85 83 79 74 71 66 63 60 59 60 61 58 58 56 55 53 50 49 49 49 50 50 51 53 56 58
121 127 131 131 126 116 107 102 99 94 87 83 78 75 71 68 64 61 58 55 51 52 52 51 50 46 43 41 39 40 41 41 41 42 43 44 47 50
128 134 133 126 116 108 100 97 92 85 81 75 71 68 64 61 59 56 54 52 47 45 42 41 40 37 36 35 34 35 34 34 36 36 37 38 40 43
135 133 126 116 108 102 97 89 84 80 75 69 64 60 58 55 52 50 47 45 41 38 38 37 35 32 31 30 28 29 26 28 30 31 34 35 35 36
129 123 115 107 103 97 89 83 79 74 68 63 59 55 51 47 44 42 41 40 38 35 35 33 30 27 24 24 22 21 21 21 21 23 27 28 29 31
121 114 104 100 94 86 81 77 72 66 61 57 53 48 45 42 40 38 36 35 37 33 31 27 25 23 22 20 20 16 15 15 14 16 20 23 25 27
114 103 98 90 83 80 74 71 64 59 55 51 45 43 40 37 35 34 32 31 30 27 24 22 20 19 20 21 17 14 12 11 9 11 13 16 19 22
100 96 88 81 77 75 69 63 57 53 50 44 41 38 34 33 31 29 28 25 24 23 21 20 18 15 15 17 16 11 8 6 5 6 8 10 15 19
92 85 79 76 71 66 60 55 52 47 43 40 37 34 33 31 27 25 24 23 21 19 18 17 14 13 13 13 12 7 4 3 2 3 5 8 13 18
83 78 75 70 66 59 53 51 47 43 39 37 35 33 29 27 24 22 21 21 18 15 14 13 12 11 10 10 10 5 2 2 3 5 6 11 13 16
77 74 69 64 57 53 51 46 41 39 37 35 32 30 27 22 20 20 18 18 16 13 11 11 10 10 10 10 9 5 1 1 3 7 8 10 15 18
74 68 62 56 52 50 45 41 37 37 36 33 30 28 26 23 19 16 16 15 15 13 10 9 7 8 9 9 7 4 2 3 2 7 12 12 15 18
66 60 55 51 49 45 41 40 39 36 35 31 30 29 27 24 19 16 14 13 12 12 9 7 6 5 6 6 4 4 3 5 4 7 13 16 18 19
59 54 50 47 42 41 41 39 37 35 33 32 29 27 26 24 21 16 13 11 10 10 9 7 5 3 3 3 2 3 3 6 6 8 11 16 18 21
53 49 45 41 41 40 39 38 38 36 33 31 29 27 24 21 19 19 15 10 7 8 8 6 4 1 2 1 2 4 3 8 9 8 10 12 17 21

GFSNE_250_spd_006.txt.gz
Wind_Speed
93 97 102 107 112 116 121 110 110 96 86 90 90 92 96 101 105 109 113 116 120 125 129 132 132 132 131 129 128 127 126 126 126 125 127 127 128 126
99 104 109 113 118 121 113 113 106 101 88 91 95 98 103 109 115 120 123 126 127 126 124 126 128 128 124 122 118 116 118 119 120 122 125 127 128 129
106 110 115 118 120 114 112 107 104 104 104 101 110 114 118 123 125 121 116 113 113 114 114 112 108 108 109 107 103 101 102 103 104 104 104 107 109 113
111 115 119 119 115 111 106 104 108 113 118 117 118 124 129 125 119 113 109 106 103 100 98 97 97 96 95 94 95 96 98 97 96 96 96 95 95 96
115 119 116 113 109 105 106 110 116 122 127 127 125 121 116 112 103 100 97 94 92 88 86 86 86 87 87 86 86 87 87 88 88 87 86 86 87 87
119 114 113 108 104 107 112 119 124 128 129 125 117 109 103 98 94 88 87 84 81 78 81 77 75 75 74 75 76 77 77 77 77 76 77 78 80 79
112 111 105 104 109 115 120 125 131 132 121 112 106 98 95 91 87 82 79 77 72 72 70 63 68 64 66 66 66 67 68 68 68 69 71 73 74 75
107 103 106 111 117 122 128 132 133 120 105 99 97 94 90 85 82 76 71 67 65 60 60 58 61 56 57 57 58 57 58 59 60 62 63 65 67 69
102 107 113 119 124 128 132 128 118 110 102 96 94 89 85 79 73 68 62 58 58 57 55 49 53 48 51 51 50 48 50 51 52 54 56 58 60 63
109 114 119 126 130 130 120 116 112 105 101 94 86 82 76 70 65 59 58 52 50 51 50 45 46 41 42 44 41 40 45 44 46 48 49 51 53 55
116 123 128 130 131 119 114 108 103 101 93 84 78 73 66 61 59 56 51 48 43 44 45 42 41 38 36 38 33 34 37 38 41 41 43 45 47 48
120 129 132 129 117 114 106 102 98 90 83 77 69 63 59 55 51 48 48 46 42 40 39 39 39 40 32 36 26 27 30 30 33 35 37 38 39 40
128 132 127 118 113 105 101 94 84 80 75 69 62 57 53 50 47 43 43 44 43 38 39 38 35 31 31 25 27 19 23 26 27 29 30 31 32 32
130 124 117 109 102 98 90 82 77 72 66 60 55 52 48 45 42 42 40 40 39 38 36 33 30 26 23 21 21 18 18 19 21 23 24 25 26 26
123 117 105 98 93 87 81 75 70 64 58 54 50 48 45 43 40 38 38 37 36 36 34 32 28 23 21 18 17 16 17 17 18 18 18 19 19 19
113 101 95 89 82 79 76 68 62 56 52 49 45 42 41 39 37 36 34 33 29 28 30 29 23 17 14 13 13 13 14 14 14 14 15 14 13 14
94 91 85 79 76 70 64 60 54 51 47 45 42 40 38 36 35 31 30 29 27 24 26 24 19 13 12 11 9 10 11 11 11 10 10 8 7 7
88 82 77 74 68 62 56 50 49 46 44 42 40 38 36 33 30 30 28 26 23 21 20 20 16 12 10 10 8 7 9 9 7 7 4 3 1 3
80 75 72 66 61 54 49 46 43 41 40 38 35 33 31 30 28 25 25 24 21 18 16 16 13 10 8 8 6 6 7 8 6 3 1 2 3 6
74 71 65 59 53 49 45 43 41 39 36 35 32 30 28 25 23 22 20 21 19 15 12 11 11 7 6 7 6 6 8 8 7 5 5 7 6 9
69 64 58 52 48 45 44 42 39 37 35 34 33 30 27 25 21 17 16 16 17 13 9 8 7 5 5 6 6 6 8 10 10 9 9 11 12 13
62 55 49 46 45 44 41 39 39 38 37 34 30 27 25 22 19 14 11 11 13 11 7 4 4 4 5 6 7 7 8 12 11 12 13 14 17 18
53 47 44 42 41 39 40 41 40 39 36 31 26 23 20 17 14 14 10 8 8 10 5 3 3 4 6 6 7 8 7 12 12 15 16 17 19 22

GFSNE_250_spd_009.txt.gz
Wind_Speed
86 89 92 94 99 102 106 108 108 106 110 119 113 115 109 107 109 111 112 114 118 124 129 131 133 133 131 131 131 130 130 129 128 127 127 124 122 121
90 94 97 101 105 108 110 113 118 120 115 113 110 106 108 110 114 117 123 127 131 129 124 120 117 118 119 118 118 118 117 115 115 117 120 121 123 125
95 98 102 105 109 112 116 120 124 121 116 103 106 111 116 120 124 128 128 122 117 113 109 106 105 105 103 105 105 104 102 100 100 99 100 103 107 112
99 102 106 109 114 117 122 125 119 119 111 109 113 118 124 129 131 122 115 110 101 97 97 98 97 95 96 94 96 96 94 92 90 91 90 91 93 97
102 106 110 114 118 123 121 119 114 112 118 120 120 127 130 126 115 110 102 95 93 90 88 82 83 85 85 86 85 85 84 82 81 81 81 82 82 84
107 110 114 119 121 117 115 109 115 120 125 127 129 127 119 112 103 94 92 88 83 83 78 75 76 73 73 74 74 75 74 73 71 71 71 72 74 76
111 115 120 117 115 109 111 117 123 127 129 130 122 114 106 97 93 89 82 81 77 76 72 66 69 64 64 66 68 69 67 66 65 65 65 66 67 69
115 116 112 110 106 112 118 125 130 133 130 116 108 100 98 95 90 84 79 75 74 67 66 56 60 59 57 57 58 58 59 59 59 59 60 60 62 65
109 109 101 107 113 117 123 128 134 130 117 107 102 98 95 87 83 80 74 67 59 59 63 53 50 48 46 49 50 50 49 50 51 52 54 56 58 60
100 103 108 112 119 124 127 131 125 116 109 104 99 92 84 80 75 72 66 61 53 49 54 51 48 39 42 40 40 40 43 46 45 46 49 50 50 52
103 109 114 120 125 129 130 120 113 107 103 98 89 82 76 71 66 64 58 53 50 42 47 43 44 40 41 39 35 30 37 39 40 41 42 43 44 44
109 115 121 127 130 128 118 110 105 101 95 87 80 72 66 60 55 53 51 50 46 41 40 39 37 38 31 32 31 26 31 32 34 35 36 37 38 41
114 120 127 131 125 115 108 103 98 89 83 78 70 64 58 52 48 46 45 44 43 36 39 37 35 30 32 28 28 24 24 27 29 31 32 34 37 39
120 127 130 122 112 107 102 96 86 80 73 66 61 56 52 48 43 40 42 38 39 36 34 32 31 28 26 25 24 24 24 25 25 25 27 29 30 32
127 129 119 110 104 100 90 82 77 69 64 59 53 49 46 45 42 37 36 34 33 32 29 30 29 26 25 22 22 22 22 19 18 19 21 22 22 23
125 116 107 101 96 86 80 75 68 62 57 53 48 44 43 40 38 35 31 30 27 28 27 27 25 22 21 20 19 18 16 14 16 17 17 18 16 17
110 101 95 89 80 75 68 64 61 56 51 47 45 41 39 37 33 32 28 26 26 22 23 24 22 20 18 17 15 13 11 14 14 12 13 14 13 13
97 91 81 75 72 67 62 56 52 49 47 43 39 37 34 32 28 25 24 22 22 21 20 20 18 18 16 13 10 9 9 12 12 9 10 12 10 6
86 76 72 69 64 59 55 51 46 41 37 36 37 36 34 30 25 21 22 21 21 17 18 18 14 14 13 9 5 6 6 8 8 7 8 8 5 2
71 69 65 61 57 53 50 45 39 38 40 40 39 37 33 27 24 22 18 18 17 14 16 15 11 11 9 5 2 2 3 5 6 6 5 3 5 6
67 63 59 54 51 48 44 42 43 45 44 40 36 33 30 26 23 20 17 14 14 11 12 12 7 7 5 2 2 3 3 4 5 6 6 7 7 9
61 56 52 49 46 43 42 44 46 45 42 39 34 28 26 22 20 19 15 13 11 8 8 8 4 4 2 2 4 5 4 4 5 8 9 10 9 14
53 49 46 43 41 42 43 46 45 42 38 33 28 23 20 19 17 17 13 13 10 6 4 4 0 3 3 5 7 6 7 6 8 11 11 13 14 18

GFSNE_250_spd_012.txt.gz
Wind_Speed
74 77 81 84 87 91 93 96 97 97 101 107 113 116 119 123 126 122 121 115 116 117 118 121 124 130 135 131 126 123 122 120 117 116 114 112 112 114
78 81 84 88 91 94 96 100 103 104 105 114 117 121 125 121 121 117 116 120 123 125 128 127 124 120 117 114 112 112 110 108 105 104 103 102 102 103
81 84 88 91 94 98 102 104 109 114 113 116 123 120 119 115 118 122 125 127 130 130 121 113 111 107 102 103 102 102 100 99 98 97 96 95 94 93
85 87 91 94 99 102 106 111 114 118 121 118 116 111 117 122 125 129 132 132 122 113 108 103 101 94 95 92 92 92 91 91 89 89 88 88 89 88
87 91 95 99 103 108 112 115 121 123 119 112 108 118 123 128 130 134 128 118 109 100 95 94 87 87 85 85 87 84 83 82 78 76 77 80 81 81
93 96 100 105 109 113 118 121 119 114 110 116 119 122 128 132 132 119 111 104 97 89 88 87 76 80 79 78 79 79 78 72 67 68 66 68 70 71
98 102 106 110 115 119 119 115 108 113 120 122 126 129 133 127 115 104 96 92 89 80 85 85 72 71 72 69 69 71 70 68 64 62 62 62 63 66
103 108 112 117 119 114 107 110 117 123 127 129 132 129 119 109 102 98 89 87 84 74 77 77 64 63 62 63 61 63 63 60 57 62 59 57 58 60
109 113 117 115 107 105 110 118 125 132 133 132 124 114 105 99 96 93 87 83 75 67 69 66 61 56 54 54 52 54 56 55 55 57 55 53 51 52
115 117 111 102 106 112 118 125 131 135 134 122 111 102 96 91 88 86 80 76 68 56 56 59 55 49 50 47 46 47 50 47 50 52 50 48 45 44
112 107 102 107 115 120 126 129 134 133 120 109 101 96 90 86 81 76 72 67 64 53 48 47 46 45 44 43 42 44 45 41 41 42 41 40 38 37
100 101 107 114 121 128 130 133 128 117 107 101 94 88 84 77 71 65 63 61 57 54 41 44 40 44 35 36 37 37 38 37 36 35 34 34 34 34
101 107 114 121 126 129 132 123 113 106 101 94 88 81 74 68 62 56 53 49 50 48 41 39 36 35 35 31 31 32 29 28 28 28 30 32 33 33
107 114 121 125 129 129 118 109 104 98 92 86 77 72 66 60 55 49 46 43 43 46 38 34 35 32 30 28 31 24 24 25 26 27 29 31 32 32
114 121 126 129 124 113 106 102 96 89 82 75 67 61 58 54 51 48 41 41 37 39 39 30 32 30 29 27 25 23 24 23 25 26 27 28 28 30
119 125 127 118 110 104 99 93 88 81 74 68 61 54 49 46 43 44 42 36 33 30 35 27 29 26 25 27 23 21 25 25 23 25 23 23 24 25
122 121 112 106 100 95 87 82 76 69 64 58 53 47 45 45 42 43 39 36 32 27 25 26 24 22 23 21 20 23 22 22 24 20 18 21 20 20
114 107 101 96 90 84 79 72 65 61 55 50 46 46 46 45 44 41 37 34 29 29 23 21 20 20 19 19 17 21 21 19 18 18 17 16 14 15
102 97 93 86 80 75 70 64 59 53 49 47 48 48 46 43 42 39 32 30 29 27 22 18 16 17 17 15 18 19 19 18 17 14 12 13 13 12
94 88 81 76 71 65 60 56 50 49 49 50 49 45 41 38 35 32 28 26 25 22 18 15 13 13 13 13 15 16 16 15 14 9 11 11 9 5
83 77 72 67 61 57 52 49 49 50 49 45 39 36 33 32 31 26 22 21 20 17 15 12 11 11 10 11 12 13 13 11 9 11 9 7 3 1
71 67 62 58 53 48 46 47 49 49 45 38 35 32 28 26 25 22 18 16 13 12 10 8 8 8 8 8 10 10 9 8 9 7 6 6 5 4
62 58 54 50 45 43 46 48 47 45 41 37 32 28 26 21 18 15 13 10 9 8 6 6 5 4 5 6 7 6 5 6 8 7 9 6 10 9

GFSNE_250_spd_015.txt.gz
Wind_Speed
71 72 74 76 78 80 82 84 85 86 88 94 96 99 103 107 111 114 118 122 121 120 120 113 115 118 122 127 131 133 131 128 123 117 114 111 106 105
73 75 77 78 81 82 85 87 89 88 86 95 100 104 110 113 118 121 120 118 116 112 116 119 123 127 130 132 127 121 115 112 107 103 101 100 98 97
75 77 80 81 83 85 87 90 91 93 95 101 107 112 116 120 120 120 113 111 117 122 125 128 129 126 117 109 105 103 103 100 97 95 92 91 90 90
78 79 82 85 88 89 92 95 96 101 105 107 114 119 122 122 117 112 118 123 127 129 128 124 116 110 103 98 96 97 94 91 89 85 82 81 82 84
80 84 85 88 91 93 97 99 104 109 113 116 119 122 121 116 117 122 127 131 133 126 118 108 105 101 95 88 87 86 84 82 77 75 75 73 73 77
83 85 89 92 95 99 101 107 111 116 121 124 121 118 115 121 125 129 133 135 125 106 101 97 93 89 82 82 81 78 75 73 69 65 64 64 66 69
85 89 93 95 99 104 108 113 118 123 127 122 117 115 122 126 132 135 128 110 107 93 89 87 82 79 74 73 73 71 70 66 63 59 57 56 59 61
88 93 96 99 103 108 114 119 125 126 123 115 119 123 129 134 133 120 106 99 91 81 79 84 71 71 67 68 66 64 62 60 58 57 54 53 51 51
91 95 99 104 109 114 119 126 123 120 119 123 125 132 134 129 114 106 95 86 81 75 71 75 61 65 61 62 59 58 55 53 54 54 53 52 51 50
94 99 104 109 115 121 122 118 116 121 126 129 133 132 123 109 101 92 86 83 75 66 62 67 57 59 55 56 55 53 50 49 48 49 46 46 47 47
98 104 109 116 121 119 114 113 121 125 130 133 130 117 107 97 88 86 80 73 72 64 56 56 51 54 48 52 51 48 45 45 44 45 42 40 40 41
104 111 116 116 113 110 115 120 125 129 132 128 113 102 93 86 82 75 70 68 65 65 52 53 46 46 48 43 45 42 41 39 40 42 39 39 38 37
111 112 110 107 110 116 121 126 129 131 122 110 99 91 85 79 72 67 62 57 58 57 52 49 43 42 43 45 34 39 36 35 36 34 33 32 33 34
105 102 104 110 115 121 125 129 129 115 105 96 89 84 76 69 64 59 53 51 49 52 51 47 45 40 40 39 35 30 30 30 32 27 26 29 30 29
99 105 110 115 121 125 127 122 109 100 93 88 83 75 67 62 57 53 48 48 49 48 49 48 42 36 37 33 31 26 30 24 24 28 28 27 27 27
105 110 116 121 124 125 114 105 96 90 86 80 73 67 63 58 53 51 51 49 46 44 43 44 37 33 34 29 28 25 22 25 23 22 24 26 27 27
109 116 120 123 119 107 98 92 86 82 75 68 64 60 57 58 56 54 48 44 42 40 35 37 33 31 29 27 23 23 26 20 24 26 25 22 23 24
116 119 119 108 101 93 87 82 76 70 66 62 59 59 59 56 55 49 45 41 37 33 29 29 29 26 24 24 21 17 19 22 22 21 21 23 22 23
116 110 100 94 88 82 78 70 66 63 60 58 58 55 52 49 48 42 37 33 29 25 22 21 21 21 20 18 20 18 17 20 19 20 22 21 19 17
99 93 88 82 77 71 64 62 60 58 57 55 51 47 44 41 39 34 30 26 21 18 18 15 16 17 14 13 14 17 19 19 20 20 16 16 15 14
87 82 76 72 66 59 56 55 55 56 54 50 45 41 40 36 32 29 24 19 15 13 11 12 13 12 11 11 12 14 14 16 16 14 13 13 12 10
77 71 67 61 54 52 50 51 53 51 48 44 40 36 35 32 27 23 17 12 11 8 9 11 10 9 10 10 12 13 14 16 14 13 11 11 8 6
66 62 57 51 48 45 48 50 48 46 43 39 37 30 27 25 21 17 12 10 7 7 9 8 8 9 10 11 11 12 15 13 12 12 12 8 6 4

GFSNE_250_spd_018.txt.gz
Wind_Speed
79 79 80 79 79 81 81 81 79 78 81 89 90 92 93 95 97 98 101 105 109 112 116 116 116 109 101 105 111 116 121 125 126 125 124 122 119 115
83 84 84 83 84 85 85 85 86 85 83 90 93 95 98 100 103 105 108 111 116 118 117 112 105 106 111 116 121 126 129 128 125 120 117 113 110 107
84 85 86 86 86 87 87 88 89 91 91 94 96 98 100 103 108 111 115 118 120 118 107 109 112 117 120 123 125 123 117 113 109 105 100 96 94 94
83 85 87 88 88 88 89 90 92 96 96 95 99 103 106 110 113 116 119 119 112 111 114 119 120 124 121 115 108 104 103 100 97 93 89 87 84 84
82 83 85 86 87 88 89 91 94 97 99 98 102 108 112 116 118 119 116 111 115 118 121 125 124 115 106 100 96 95 92 89 85 84 81 80 78 77
83 83 83 84 85 87 89 92 95 97 100 104 108 112 118 121 119 113 113 119 126 126 121 117 107 101 95 90 89 87 84 80 77 73 71 69 68 67
81 81 81 82 83 85 88 92 96 101 106 110 114 118 121 119 112 116 121 126 131 118 107 108 94 90 85 83 79 76 70 69 67 63 60 60 60 59
77 78 80 81 83 86 89 95 101 106 110 114 117 118 116 112 116 123 128 129 124 104 90 95 81 83 75 71 69 66 62 60 58 56 55 54 54 54
70 75 79 81 84 88 94 101 108 114 117 116 114 110 112 119 124 128 126 117 107 93 78 88 75 68 66 63 62 58 56 54 52 50 50 52 52 52
71 76 78 83 89 95 100 107 114 117 120 116 112 116 121 125 124 119 107 100 96 88 70 70 71 61 58 53 56 54 53 51 49 48 48 49 49 49
74 79 85 90 96 102 108 113 119 118 113 115 120 123 125 122 109 99 92 86 82 82 64 61 60 56 50 45 48 49 49 48 46 44 45 45 44 44
82 88 94 99 104 109 112 114 111 112 116 122 126 125 116 104 94 85 79 74 69 72 60 57 51 46 53 45 43 48 45 41 42 41 42 41 40 41
91 96 102 106 109 111 108 109 112 116 120 124 122 108 99 90 84 78 70 64 60 61 56 53 49 42 49 53 37 41 43 36 37 39 40 37 38 39
97 102 104 105 105 107 110 113 117 121 121 111 101 92 86 81 74 69 63 58 51 52 56 51 54 47 45 45 41 29 37 36 35 36 36 33 35 37
96 98 99 102 105 110 112 117 119 111 101 94 86 82 76 69 64 62 61 57 52 48 48 50 46 42 39 36 33 29 31 29 33 34 34 30 30 30
94 98 102 106 109 114 116 111 101 93 86 81 78 72 67 63 63 63 62 56 47 39 36 41 34 31 26 30 29 26 26 28 25 26 31 28 28 30
97 103 108 111 113 109 100 92 86 80 77 72 66 63 63 65 63 59 53 47 39 34 28 31 24 22 24 23 25 23 22 26 25 23 22 21 21 25
104 107 107 105 99 92 85 79 74 72 67 62 60 62 61 58 55 46 41 35 28 25 23 21 18 16 19 20 20 18 21 23 20 20 21 22 20 22
104 101 97 90 85 79 73 70 66 61 58 59 61 57 55 51 44 38 32 27 22 19 17 14 12 13 16 19 18 16 12 15 15 18 19 17 17 18
95 89 84 79 73 67 64 60 55 54 56 58 54 51 48 42 38 33 28 23 18 14 11 10 11 13 15 15 16 15 14 15 16 17 18 18 18 17
84 79 73 67 62 57 53 50 50 54 55 50 48 43 40 38 34 29 23 18 13 11 10 11 13 12 10 10 11 12 13 14 15 15 15 14 12 13
74 69 63 58 52 48 47 48 51 53 46 46 41 37 34 31 28 22 17 14 12 12 13 13 12 9 8 10 11 11 12 13 13 13 11 10 11 10
65 59 54 48 44 43 45 48 50 43 41 40 36 32 27 24 20 17 14 12 13 14 14 13 10 10 11 11 11 12 14 13 12 11 10 10 9 9

GFSNE_250_spd_021.txt.gz
Wind_Speed
70 76 79 81 82 84 86 87 88 88 90 97 97 99 99 99 99 99 99 101 103 105 104 105 107 108 110 111 115 118 118 111 105 107 109 110 112 112
65 69 75 80 84 86 87 89 90 90 89 96 99 101 102 103 104 105 106 106 108 109 108 109 110 113 116 119 121 116 110 113 115 117 118 119 120 120
67 69 72 77 83 89 91 93 93 92 90 92 95 99 102 104 105 107 108 109 111 111 110 113 116 119 124 120 113 115 117 119 121 123 123 121 117 115
67 71 73 75 79 83 88 93 93 93 90 88 91 94 97 100 101 102 106 109 109 113 115 119 122 124 116 115 118 120 121 122 120 114 108 103 101 99
72 76 77 79 79 79 80 83 88 90 91 90 90 93 96 99 99 101 104 107 113 117 120 124 119 116 118 120 119 119 114 108 103 98 94 92 88 86
75 76 77 77 78 76 76 78 80 84 86 87 90 93 95 96 97 100 107 114 121 124 121 114 118 118 119 116 109 104 100 97 90 87 85 82 79 77
77 75 75 74 72 70 68 70 74 79 84 88 92 94 96 101 105 111 115 118 121 114 115 118 116 116 112 101 95 93 91 89 82 79 75 71 70 68
75 71 67 65 65 66 68 72 78 83 86 88 93 98 103 109 113 114 108 107 115 121 115 111 105 103 97 90 86 83 83 77 70 68 65 62 61 60
66 64 65 68 71 74 78 82 86 91 94 97 101 107 108 109 102 106 110 113 116 112 101 97 97 93 86 83 73 69 70 65 58 58 58 56 55 54
65 69 72 76 79 82 85 91 96 101 105 109 109 105 101 104 106 110 110 109 106 100 86 86 88 83 78 71 59 58 60 56 48 49 48 49 50 50
73 76 78 82 86 89 93 97 103 106 106 102 101 104 108 110 108 105 101 96 93 91 80 73 74 67 70 65 53 46 50 49 46 47 48 47 47 47
78 81 84 88 92 95 97 98 100 101 103 108 111 112 110 105 98 92 86 84 80 77 72 68 64 56 61 61 47 39 46 50 48 46 44 44 45 44
83 87 90 92 94 95 97 98 101 107 112 113 113 109 101 93 87 83 76 69 67 67 65 61 64 58 52 58 42 43 46 50 48 42 40 41 40 38
85 86 88 91 94 98 101 105 110 112 110 105 99 93 88 83 78 72 67 65 62 56 58 54 55 48 46 45 44 36 40 45 43 35 37 39 34 32
82 87 91 96 101 104 106 109 106 100 95 91 86 81 77 72 66 66 64 60 56 48 47 50 44 38 37 38 35 33 33 34 34 36 35 32 30 30
89 96 99 103 105 107 104 98 93 88 84 78 75 72 67 64 63 62 61 57 51 46 40 41 34 33 32 30 27 27 28 27 33 31 29 28 23 29
97 102 106 106 104 97 90 85 81 76 71 69 66 62 60 61 58 57 53 48 43 41 36 33 30 27 24 24 22 21 23 24 23 23 25 24 23 30
102 104 103 99 93 85 79 73 69 66 65 61 56 56 57 55 55 48 43 40 35 32 29 26 25 21 18 16 15 15 16 17 19 21 24 23 23 29
102 98 93 86 79 74 69 65 63 60 56 51 53 53 51 50 46 39 36 32 28 25 22 19 15 12 11 12 11 11 15 18 19 21 21 22 23 24
93 86 80 75 70 65 61 60 55 50 49 51 48 47 47 45 38 35 31 26 22 18 15 14 14 14 13 13 12 12 13 14 15 16 17 18 18 18
80 75 70 65 60 58 55 52 47 46 49 47 44 45 41 36 33 29 25 21 17 15 16 15 14 13 13 14 15 15 15 14 14 14 16 17 17 16
70 65 60 56 54 52 47 43 42 45 44 42 41 39 34 30 27 22 20 17 17 17 15 14 13 12 13 13 13 13 12 13 13 13 12 12 12 11
61 56 53 51 47 45 40 38 42 43 40 39 37 34 29 25 22 19 17 17 16 15 14 13 12 13 13 11 10 12 13 12 11 10 9 10 11 10

GFSNE_250_spd_024.txt.gz
Wind_Speed
67 68 68 68 69 68 69 71 72 73 74 84 91 96 99 101 102 100 101 101 101 102 102 102 104 105 105 105 107 108 107 108 108 109 108 111 113 116
69 71 70 70 72 72 73 74 75 75 75 79 84 88 92 96 101 103 104 104 104 104 102 101 101 100 100 102 102 103 104 107 108 110 113 117 120 124
72 74 72 74 74 73 73 76 80 80 80 81 82 84 86 88 90 95 100 102 103 104 103 102 102 101 102 101 101 101 104 109 113 117 121 126 128 127
75 74 73 71 72 74 77 80 83 85 85 83 84 86 85 86 86 87 89 94 98 102 102 103 104 104 104 103 106 109 114 118 123 127 130 126 120 120
73 70 69 73 75 78 80 83 84 83 82 80 79 78 77 79 78 80 83 88 93 98 101 102 104 107 110 113 117 120 123 124 122 122 125 124 123 122
69 71 73 77 80 84 84 82 78 75 73 73 75 76 78 80 81 83 87 93 96 102 106 107 113 117 120 122 121 118 116 118 121 124 125 118 110 103
67 72 79 82 83 79 74 73 75 78 80 81 82 84 85 88 91 94 96 101 107 112 111 110 112 112 115 116 117 117 116 112 109 109 107 98 92 89
74 81 78 75 72 73 76 79 82 85 86 87 89 90 92 95 97 97 96 97 100 110 105 108 111 113 117 115 110 103 97 92 91 94 93 85 81 77
77 80 81 77 78 80 83 86 89 91 92 93 93 95 92 94 97 101 103 103 106 109 107 103 103 102 100 99 96 86 81 77 76 81 79 74 70 67
85 86 82 85 86 88 89 91 94 96 96 97 97 98 101 103 103 104 104 103 102 100 96 89 91 90 88 91 85 73 66 63 65 71 71 64 62 59
87 84 87 89 90 92 92 91 92 95 99 102 104 105 106 106 103 100 98 94 91 91 87 78 81 77 76 83 76 67 60 63 67 67 64 57 54 51
84 87 90 91 92 89 89 92 97 102 107 109 110 109 106 101 97 91 87 83 81 78 79 70 73 72 68 75 70 61 54 60 62 60 56 49 48 48
86 91 91 87 87 92 97 100 104 107 110 110 108 102 98 93 88 82 77 72 69 66 66 66 70 68 62 62 64 53 50 55 54 53 49 44 47 50
89 85 83 90 95 99 102 105 109 109 107 103 97 92 89 83 77 74 68 64 62 58 62 59 56 53 52 51 48 45 45 46 45 43 40 39 45 48
78 85 89 94 99 103 107 108 107 102 96 92 88 83 76 72 67 66 64 62 58 55 53 50 49 45 44 41 39 39 38 39 37 36 35 37 39 38
83 89 94 100 104 107 106 102 97 92 88 83 77 70 66 63 62 63 60 58 54 48 45 41 40 37 35 33 32 31 29 30 28 28 28 28 30 33
91 96 102 106 105 102 98 92 87 83 77 69 65 61 60 60 58 54 55 51 47 43 38 35 32 30 28 26 26 24 22 24 26 27 27 24 24 29
96 101 103 101 97 91 85 80 75 70 64 59 55 54 55 55 51 50 48 43 38 34 33 31 28 26 25 24 22 21 21 23 23 24 23 20 20 27
100 99 96 91 84 78 73 68 61 58 54 51 50 51 51 47 47 45 40 36 33 30 28 27 27 26 24 21 19 19 19 18 19 21 20 21 20 25
94 88 82 76 71 67 61 57 53 49 47 45 47 48 46 44 43 39 35 31 29 27 26 26 25 24 22 20 18 16 16 19 20 21 22 23 23 24
81 75 68 64 60 56 53 49 45 42 41 42 45 45 42 41 38 34 30 29 28 26 24 24 22 21 21 22 22 20 18 17 18 19 19 20 20 20
66 62 57 54 51 48 45 42 39 38 39 41 43 41 38 37 33 29 26 25 24 23 23 23 22 21 22 21 21 21 19 18 17 17 17 16 16 17
56 53 51 47 43 41 37 34 36 37 38 39 40 35 34 32 28 25 22 24 24 23 20 20 21 22 22 20 19 19 17 13 13 14 14 13 12 12

GFSNE_250_spd_027.txt.gz
Wind_Speed
72 72 72 73 72 73 71 71 72 70 69 72 75 79 81 85 85 85 87 88 89 89 89 90 91 94 96 100 104 108 108 106 102 102 101 100 100 101
74 76 75 74 74 75 73 75 74 70 69 74 79 83 86 90 90 89 91 91 91 90 89 89 90 89 89 92 93 96 100 104 104 103 102 102 102 102
74 76 76 74 76 75 74 76 74 73 74 79 84 86 87 87 85 83 83 82 82 83 83 84 84 84 84 86 87 89 91 94 98 102 104 105 105 105
73 75 76 78 79 77 77 76 75 78 84 85 84 79 79 80 77 78 81 83 83 85 87 86 87 88 89 91 92 93 96 97 100 102 105 106 108 109
74 75 77 80 80 78 81 79 82 88 90 80 75 78 80 83 83 85 86 88 90 93 94 93 94 95 98 100 101 103 105 107 107 108 112 114 116 118
71 78 79 78 79 82 82 86 87 88 82 80 82 83 85 88 89 90 92 94 92 96 97 97 99 101 105 104 106 109 111 112 112 114 116 119 120 120
79 80 78 80 82 83 84 85 82 82 84 86 90 92 92 95 94 91 89 92 98 102 101 103 103 103 106 106 107 108 109 108 108 109 112 114 117 118
78 77 75 74 73 81 77 79 83 88 91 94 98 97 94 93 94 96 99 100 104 109 105 107 103 102 102 102 100 98 96 94 92 91 93 97 100 99
74 74 72 74 77 80 82 86 90 94 97 101 96 95 96 100 102 104 105 105 106 103 98 100 93 94 94 93 92 87 82 77 75 76 80 85 88 87
68 72 77 78 82 85 90 91 96 100 102 100 100 102 105 109 108 106 104 102 100 98 92 86 86 86 85 86 84 77 68 64 64 66 71 75 77 75
78 81 83 85 90 92 93 96 100 104 102 103 106 110 113 112 107 104 99 95 92 91 86 78 81 75 73 77 76 69 63 63 64 67 67 67 66 60
80 85 87 88 91 93 97 100 102 101 105 109 113 116 114 111 104 95 90 86 81 78 78 73 72 66 70 72 69 64 61 58 59 59 58 55 52 52
83 86 89 91 92 96 99 99 101 106 111 113 118 117 111 101 93 87 80 75 72 68 65 64 65 64 62 64 61 56 51 48 47 46 46 44 42 41
86 88 89 92 96 97 97 102 107 110 113 116 115 107 99 92 84 79 73 68 60 61 62 59 59 55 53 51 51 47 45 40 37 35 33 32 32 35
83 88 92 92 93 98 102 107 111 113 112 109 100 93 87 79 72 70 64 60 60 55 57 53 50 47 45 43 40 39 37 35 33 30 28 27 27 30
86 85 87 92 97 103 106 109 110 108 101 95 88 80 74 67 63 59 59 61 57 51 46 46 44 41 39 37 38 36 34 32 28 26 23 23 24 27
83 89 93 97 101 104 106 105 99 91 87 79 74 67 64 60 54 55 57 55 51 50 43 37 36 37 35 37 34 33 33 32 30 25 22 21 22 24
86 89 96 100 101 99 92 85 82 76 71 65 60 57 54 52 52 52 50 47 46 41 39 37 36 32 29 28 31 30 28 26 26 23 20 18 23 24
91 94 95 92 86 82 78 71 66 61 58 53 49 48 48 50 49 47 45 41 37 33 34 36 34 32 30 26 24 23 26 29 28 26 23 21 22 25
91 89 84 77 73 67 61 57 54 49 45 42 43 46 46 46 45 41 39 39 35 31 29 28 30 32 30 27 25 23 22 23 24 26 26 26 25 24
82 76 70 65 60 55 52 48 43 38 37 40 43 44 44 43 38 37 34 33 32 29 27 29 29 29 29 28 27 25 23 21 21 20 20 20 19 19
70 65 60 54 50 47 42 38 36 36 38 40 42 43 40 37 35 33 31 30 26 25 26 27 27 26 26 26 25 24 23 22 21 19 17 17 17 16
63 58 52 47 43 40 35 34 37 37 38 40 41 39 36 31 31 30 29 25 23 25 27 26 26 26 26 25 24 24 23 22 21 18 20 20 18 17

GFSNE_250_spd_030.txt.gz
Wind_Speed
74 71 80 77 77 75 75 76 77 75 76 79 80 79 75 77 77 79 83 85 84 78 76 75 75 75 75 76 76 77 78 78 79 81 86 91 93 96
76 74 78 79 78 78 77 78 81 77 78 80 82 82 80 83 84 86 88 88 84 82 80 80 80 81 81 81 82 82 84 85 86 87 87 86 86 89
76 78 77 79 80 79 78 81 83 84 79 82 83 83 82 87 90 88 91 88 83 85 84 82 82 82 83 83 84 86 89 91 93 95 95 94 93 93
78 77 73 82 80 80 82 82 84 85 82 83 82 80 83 83 86 90 88 87 86 86 86 84 82 83 86 89 92 95 98 100 102 103 103 102 102 101
79 77 74 76 81 83 85 86 85 87 86 78 75 79 84 86 86 83 88 91 90 87 84 87 90 93 96 98 102 106 107 108 107 109 109 110 110 110
76 75 73 68 78 80 86 88 87 88 86 82 85 85 87 85 84 88 88 90 89 92 95 99 103 105 104 105 107 105 104 104 103 103 104 107 108 109
68 72 72 76 81 84 84 89 90 81 78 81 89 94 87 85 90 91 89 92 98 102 105 112 112 111 108 106 101 96 93 92 91 91 91 93 97 101
67 72 75 78 80 83 88 85 83 83 86 93 100 94 92 94 94 95 96 98 104 113 115 120 115 113 102 96 91 86 81 78 76 77 80 84 87 89
61 69 73 76 82 87 80 76 86 92 96 94 96 100 97 97 98 99 104 108 113 118 117 117 104 99 93 89 81 75 71 69 68 69 72 76 79 80
65 70 72 78 80 79 80 86 91 93 96 102 103 100 100 101 102 106 111 116 119 121 105 101 97 89 87 81 75 71 68 65 64 64 63 63 63 66
63 68 77 83 83 86 90 94 98 101 106 105 103 102 104 108 110 114 119 120 121 113 95 91 84 79 79 72 68 68 65 63 61 59 57 57 57 57
66 75 80 84 87 90 93 98 100 102 103 104 104 106 110 115 118 120 121 119 106 96 88 83 77 67 75 73 64 62 60 54 53 51 50 48 47 49
71 77 82 85 90 95 96 97 97 97 100 104 109 113 116 118 122 121 109 98 90 82 74 72 70 67 66 64 61 55 50 47 42 43 43 42 41 41
76 81 83 87 89 90 90 92 95 100 106 110 113 117 119 120 111 100 91 85 77 70 67 62 65 63 60 58 53 47 41 42 38 35 33 33 34 33
75 77 80 83 85 88 92 98 103 107 109 114 117 117 109 100 93 86 79 75 68 59 56 59 58 56 51 48 48 45 43 36 37 32 30 28 28 26
72 73 77 84 90 95 100 103 105 108 112 112 104 96 91 83 78 74 70 63 58 54 54 53 50 46 44 44 43 37 39 36 31 28 26 27 25 24
74 81 87 92 94 98 102 104 106 104 96 90 85 79 75 72 66 60 56 54 55 57 54 48 41 37 33 32 44 31 33 35 30 27 24 25 23 20
82 86 88 91 96 100 102 99 91 87 82 75 70 68 65 60 53 50 51 52 53 48 46 44 39 36 29 21 31 37 30 34 35 30 25 22 24 21
80 86 90 94 96 95 86 83 78 72 67 63 60 57 53 49 49 51 51 50 46 42 37 35 34 32 33 29 23 28 30 31 30 29 27 23 21 22
83 87 90 90 84 78 74 68 64 60 55 51 48 48 47 48 50 49 47 44 42 36 30 27 29 29 28 29 29 26 26 26 25 24 24 24 22 21
83 84 80 75 72 67 62 57 53 49 45 44 46 47 47 48 47 45 42 37 35 30 28 25 25 26 27 27 27 25 24 22 21 19 19 20 18 19
77 74 69 66 62 58 52 49 47 43 41 43 45 46 46 46 43 41 36 33 26 23 23 24 24 23 23 24 23 21 20 19 22 24 21 18 17 17
68 65 64 60 55 49 46 45 43 40 40 41 45 46 45 42 38 35 31 27 22 21 24 23 22 22 23 22 23 24 23 22 19 17 21 23 22 20

GFSNE_250_spd_033.txt.gz
Wind_Speed
80 79 80 82 81 81 79 81 82 79 80 82 81 81 79 82 82 82 83 77 75 72 73 74 77 81 83 77 77 76 78 81 81 81 81 82 82 83
78 76 78 79 81 80 82 82 81 81 83 82 84 85 85 86 87 87 90 75 71 77 79 80 83 86 86 80 83 87 85 81 78 79 79 81 83 86
82 81 78 80 82 80 86 86 83 84 85 82 87 87 89 90 90 91 81 78 79 80 83 84 86 87 86 88 85 84 80 81 83 84 87 91 94 97
83 84 88 85 82 70 76 82 85 86 90 89 92 90 91 94 90 89 80 80 81 87 90 89 89 88 89 84 83 84 87 88 91 94 98 102 104 108
80 81 84 83 82 79 83 83 83 87 89 90 86 91 95 94 93 80 81 92 96 95 93 94 92 87 85 87 90 92 91 91 96 100 102 104 106 109
82 83 85 83 85 84 84 80 82 84 89 90 93 96 96 97 83 85 90 94 96 99 98 93 92 94 95 98 96 92 93 94 96 95 95 95 95 96
78 80 80 78 81 85 85 83 86 86 88 91 95 94 91 85 84 90 94 97 99 98 95 102 100 104 106 102 97 92 93 91 89 87 86 85 86 86
71 71 72 72 74 69 75 79 80 86 89 93 94 94 87 90 91 91 96 96 96 102 101 109 107 114 111 104 95 91 87 83 80 76 75 74 74 75
54 54 50 51 59 67 72 75 83 86 88 90 87 88 93 96 97 99 101 98 103 108 107 111 115 122 117 108 91 86 81 76 73 69 65 65 64 66
37 42 48 52 64 69 72 78 84 87 87 87 91 95 97 97 98 98 103 105 109 113 109 115 122 122 115 99 85 77 72 69 64 66 66 64 62 63
45 49 56 61 67 74 74 76 82 89 92 95 97 96 95 96 100 104 107 111 113 116 112 118 117 105 99 84 75 69 63 63 65 61 59 59 57 57
47 54 60 63 67 70 73 78 84 90 95 97 95 97 99 102 105 109 110 112 114 116 110 104 97 85 83 78 67 59 59 60 60 56 52 52 49 49
51 57 62 66 69 74 79 84 89 93 94 95 97 99 102 106 107 110 112 113 110 99 91 85 82 78 70 68 68 63 63 55 50 50 45 44 45 43
57 60 66 71 76 81 84 86 88 89 92 97 100 101 103 106 110 110 105 96 89 81 75 70 68 64 63 65 68 65 60 47 45 47 40 37 41 40
60 64 67 70 74 78 83 89 93 95 96 97 100 103 106 107 100 93 88 80 73 65 58 58 60 61 60 59 58 58 57 46 39 41 34 34 36 33
59 64 70 76 81 87 90 92 93 94 96 99 101 102 95 88 85 78 73 66 59 51 50 55 55 56 54 49 46 52 49 45 41 33 33 32 34 30
62 66 72 77 82 88 91 93 93 96 99 99 93 85 83 76 68 64 58 55 53 55 54 53 51 48 45 37 44 40 44 41 41 38 34 30 30 27
63 70 76 82 87 90 93 95 96 96 90 83 79 75 69 63 57 51 52 52 53 53 52 51 48 43 37 26 35 36 38 38 36 36 33 29 27 26
72 79 84 88 91 93 95 93 89 81 77 74 68 63 59 53 48 48 50 51 51 49 44 43 42 37 35 31 30 33 30 30 30 29 28 27 25 25
79 83 87 90 90 88 81 76 72 70 67 63 58 54 50 45 44 49 49 50 48 43 35 34 33 31 32 32 29 25 29 28 27 25 23 24 23 22
83 86 87 84 77 73 68 65 64 61 58 53 48 46 44 44 45 48 48 44 41 37 33 28 26 27 28 29 29 27 23 27 27 25 20 17 17 21
82 80 76 72 67 63 62 60 56 53 49 45 42 41 40 42 44 45 42 38 32 29 27 25 23 23 25 26 25 22 19 17 19 23 24 24 21 16
74 72 67 64 61 59 57 53 48 46 43 39 37 35 37 41 42 40 35 31 29 24 23 21 22 24 24 22 22 21 21 21 22 19 22 25 22 21

GFSNE_250_spd_036.txt.gz
Wind_Speed
91 87 85 84 84 84 84 84 85 85 86 85 86 86 84 85 89 89 85 86 85 85 86 85 83 80 78 73 73 72 74 78 79 80 80 79 81 81
96 93 89 87 88 87 85 89 87 87 86 85 83 91 89 91 91 86 87 88 88 91 91 87 80 76 73 70 73 80 84 86 84 83 82 83 83 88
94 91 86 86 90 91 91 91 89 85 91 87 90 93 92 97 94 96 96 95 94 94 92 84 82 79 78 79 84 87 86 87 88 87 84 82 83 85
90 87 88 88 89 89 92 91 89 83 84 84 95 97 98 100 97 96 104 101 99 96 89 85 82 82 81 88 88 89 90 88 84 83 85 88 89 91
86 81 80 81 78 79 83 86 87 88 90 95 99 96 93 95 99 101 99 100 100 96 93 91 85 89 92 91 90 88 86 86 86 88 91 94 98 101
83 76 76 78 79 82 84 86 86 88 91 93 96 97 100 98 97 97 101 106 100 96 89 90 92 91 89 88 90 90 88 89 91 94 98 101 102 103
82 77 74 75 79 80 85 85 87 87 93 95 95 97 92 96 98 99 101 100 98 97 94 96 93 90 92 95 96 94 94 95 96 99 100 97 93 90
73 75 75 76 78 80 87 87 87 86 88 87 89 91 91 91 91 92 91 94 95 102 101 100 96 102 103 103 103 97 95 95 94 95 89 85 81 79
61 61 69 73 74 70 71 71 71 73 77 78 83 84 85 86 87 88 93 95 97 102 97 100 104 107 108 109 104 98 91 89 88 83 79 76 75 73
51 54 58 61 61 64 66 71 75 73 71 73 74 78 81 86 91 94 99 101 101 101 98 102 107 109 113 111 102 90 85 83 78 74 71 68 66 63
43 45 47 54 59 65 67 66 68 72 75 78 82 85 88 93 96 98 97 96 98 103 102 105 106 107 111 105 91 81 74 72 67 64 61 60 62 65
33 36 44 50 53 60 62 66 70 74 78 83 87 91 94 95 94 93 96 99 101 102 101 105 102 95 97 94 79 70 64 60 57 56 59 56 55 63
33 39 46 52 57 62 66 72 78 82 86 89 91 92 95 96 97 97 97 96 97 97 97 94 92 87 80 75 74 60 57 60 57 56 51 49 51 49
38 44 50 56 61 65 70 75 79 84 89 93 96 96 95 94 94 94 95 97 96 87 82 82 77 72 66 65 66 65 61 60 56 52 47 40 40 45
42 47 52 58 64 69 74 80 84 88 90 92 95 95 95 96 98 96 92 85 79 77 70 63 61 64 59 61 65 62 61 60 49 45 42 38 37 39
46 51 56 62 68 74 81 86 90 94 95 96 97 96 94 91 85 79 75 75 71 61 53 51 57 59 60 57 56 56 52 50 49 42 41 39 38 37
54 59 65 71 77 82 86 89 92 95 95 93 87 82 78 74 72 72 69 63 57 51 44 49 54 55 52 47 49 45 47 41 41 43 40 38 40 36
63 69 74 77 82 85 88 90 90 88 84 79 76 72 68 68 66 60 56 52 48 44 46 50 52 50 44 35 41 40 38 39 38 39 41 40 33 38
70 75 78 82 85 85 85 85 82 77 73 70 68 67 65 60 54 50 46 43 41 44 45 47 47 43 42 35 28 36 36 35 34 32 33 35 35 29
77 80 83 86 81 81 81 78 74 68 65 64 63 59 54 49 45 44 40 39 42 46 44 37 40 39 35 32 28 27 31 33 32 30 27 24 27 26
82 85 85 78 78 79 76 69 65 62 61 57 52 49 46 43 40 39 38 38 43 43 38 35 33 31 29 31 31 26 26 29 30 31 28 26 19 19
85 84 76 75 75 71 65 61 60 58 53 48 43 42 40 37 36 36 37 40 39 36 34 32 28 26 27 28 28 28 26 24 22 23 25 28 30 20
85 76 75 74 70 64 60 58 54 49 45 43 39 37 35 33 34 38 39 38 35 32 29 26 24 25 25 25 27 28 27 26 25 21 20 23 28 30

GFSNE_250_spd_039.txt.gz
Wind_Speed
106 103 100 95 92 87 85 84 85 86 89 87 87 87 88 93 89 92 92 89 92 92 96 94 89 90 89 88 88 83 80 77 73 68 67 63 66 71
108 105 103 99 95 91 87 84 73 79 84 88 87 88 83 89 96 94 97 97 95 91 86 91 97 96 95 93 93 86 80 78 76 69 69 72 77 81
105 105 102 98 97 93 86 78 60 63 71 78 80 80 83 95 93 92 96 96 96 97 100 104 105 104 101 99 97 91 90 82 76 75 77 81 83 86
101 102 102 97 92 89 87 87 89 92 96 100 99 98 102 102 104 101 106 104 104 104 104 105 106 105 105 105 100 94 90 85 81 83 84 88 89 89
99 97 97 95 93 89 86 87 90 95 96 98 104 108 106 100 98 97 98 100 100 104 108 106 106 106 104 102 97 88 85 83 87 88 89 87 88 90
97 97 93 87 86 87 88 86 86 88 91 91 93 95 99 99 100 101 103 102 103 105 106 106 106 98 91 87 87 88 89 88 89 88 87 90 93 95
72 79 81 81 80 79 81 82 84 85 85 87 90 91 99 99 97 100 102 103 103 105 97 93 94 89 88 89 89 90 90 89 89 91 93 95 98 101
51 56 59 63 58 65 72 74 79 82 84 85 88 90 91 99 102 97 95 90 90 90 83 84 87 89 92 93 94 94 93 93 94 94 96 99 101 102
35 40 45 50 58 65 62 65 71 77 79 84 89 92 90 88 85 85 88 87 90 93 90 95 93 94 97 95 94 95 95 93 93 95 97 97 96 92
14 19 27 36 44 47 54 62 64 67 68 71 73 80 81 81 82 84 88 90 92 92 91 98 95 97 100 98 96 94 93 92 91 90 88 87 82 78
12 16 22 29 35 41 47 51 54 57 60 64 67 73 79 83 87 91 93 94 95 94 94 97 95 95 99 97 97 94 89 84 82 81 76 72 68 65
16 17 19 25 31 37 42 49 54 60 66 72 77 82 85 89 92 94 95 95 95 95 93 96 94 93 102 100 94 84 78 75 71 66 63 62 63 63
22 23 27 31 35 41 46 52 59 64 70 75 80 85 89 92 93 95 96 97 96 96 94 95 94 85 81 80 86 75 66 61 57 57 56 58 59 59
30 32 35 38 43 48 53 59 65 71 77 82 87 91 94 96 98 97 97 97 93 86 79 75 75 74 74 73 70 64 57 55 52 55 56 55 52 50
39 41 44 47 52 56 62 67 73 78 83 87 90 93 96 95 93 88 82 79 75 72 69 67 69 68 66 63 60 54 55 61 50 51 53 47 42 43
44 47 50 56 61 65 70 74 78 82 85 88 90 88 83 79 77 74 71 68 66 66 65 62 59 58 59 54 51 54 56 58 54 43 46 39 33 39
50 54 58 63 67 72 75 78 82 83 81 81 81 77 73 69 66 65 64 63 63 60 54 50 50 52 52 49 53 52 55 50 46 40 38 37 31 36
57 61 65 69 74 77 80 82 79 78 80 79 74 68 64 63 62 61 60 57 54 50 47 43 43 47 48 48 46 50 43 41 37 35 36 38 34 34
64 67 72 76 79 81 84 78 78 79 76 71 66 62 62 61 57 54 49 46 46 44 41 39 40 46 49 46 33 39 35 32 34 31 34 34 33 30
70 74 77 81 82 85 78 79 79 76 70 65 63 61 58 54 49 46 43 41 40 39 39 39 40 45 42 40 33 29 31 32 33 32 31 31 31 28
75 79 82 84 87 81 80 80 75 70 65 63 60 55 50 48 45 43 39 37 36 37 42 43 37 37 35 32 29 28 28 29 31 33 31 30 29 23
79 83 85 84 83 80 80 76 70 65 63 58 53 49 45 42 41 39 34 33 36 39 43 41 32 30 28 28 27 26 25 26 26 27 27 31 34 36
82 84 84 86 79 80 76 70 64 60 57 54 50 47 42 39 36 35 35 38 40 40 35 32 27 25 24 25 24 24 26 26 24 25 25 29 32 33

GFSNE_250_spd_042.txt.gz
Wind_Speed
105 104 99 97 97 98 98 97 97 93 86 84 78 67 82 85 88 85 82 94 89 92 89 86 87 86 90 93 93 94 91 90 90 92 90 87 84 82
101 103 102 99 96 96 93 91 88 86 86 81 72 73 64 75 75 78 86 92 89 81 85 88 89 94 100 99 101 92 93 95 91 92 91 90 87 87
97 100 98 99 96 92 89 89 88 85 77 72 74 73 73 80 82 86 87 87 89 86 94 99 106 102 103 109 102 98 99 99 99 99 97 97 93 86
88 94 99 106 106 98 93 88 86 82 82 73 75 73 77 94 91 94 95 94 95 99 102 106 108 110 116 111 105 104 105 105 102 103 101 98 86 80
72 74 82 91 100 101 98 91 86 81 79 79 84 86 91 100 102 103 104 106 109 110 114 114 115 114 112 109 105 104 101 104 92 84 81 78 76 75
59 58 61 67 74 79 85 86 79 79 74 75 80 87 91 96 99 99 100 104 105 111 110 111 111 110 107 105 103 93 82 78 79 79 78 80 82 84
42 42 46 52 55 56 63 71 69 68 70 71 74 79 85 92 94 98 102 102 103 105 105 108 110 108 106 98 86 83 83 83 82 83 85 86 87 87
27 26 29 33 37 40 42 50 60 64 64 67 66 70 76 80 85 90 94 97 101 105 103 108 102 100 94 90 87 86 86 85 85 86 86 86 87 88
24 22 19 17 18 22 26 32 38 45 50 54 54 58 63 69 77 82 87 90 93 89 83 88 85 89 89 89 87 87 86 86 86 85 86 87 89 91
25 22 21 16 15 15 16 20 24 28 36 45 52 59 65 69 71 71 73 78 80 80 82 88 86 88 91 90 90 90 90 89 88 88 89 90 91 93
35 33 31 29 26 22 21 21 26 32 38 43 49 55 60 64 69 73 77 81 84 85 86 92 91 94 96 93 92 91 90 89 90 89 86 85 85 83
29 29 28 28 27 27 29 32 36 41 46 52 57 62 67 72 77 82 86 89 92 95 94 97 95 96 101 96 93 88 85 82 79 76 74 75 74 73
36 36 36 36 36 37 38 42 45 50 55 60 66 71 77 82 86 90 94 97 98 99 96 95 93 89 87 89 88 78 73 71 68 67 69 67 63 58
40 40 40 40 42 44 47 50 55 59 64 68 73 77 80 84 88 92 93 91 87 84 80 79 82 80 76 73 75 75 70 65 60 59 56 53 50 56
45 45 45 46 48 51 54 56 60 64 67 72 75 78 80 80 78 78 78 79 79 75 71 67 67 68 67 66 69 66 63 55 49 47 44 46 51 51
50 50 52 53 55 58 61 65 69 71 74 75 77 74 73 75 74 73 71 70 67 64 61 61 62 63 63 61 59 57 50 47 46 40 43 47 43 44
57 59 59 61 62 66 69 72 75 77 77 77 74 74 74 71 67 64 62 63 63 61 58 55 53 52 53 54 50 47 43 44 46 47 42 42 36 38
63 64 63 65 70 73 76 79 78 78 78 74 73 72 69 66 62 60 59 59 58 55 53 48 45 45 47 52 42 44 39 49 43 39 39 38 31 33
66 65 67 71 75 78 80 81 79 78 74 74 73 69 67 64 60 56 54 52 52 51 49 44 39 37 43 48 43 37 44 42 39 35 33 33 29 28
66 67 71 75 78 80 82 79 80 75 75 74 70 67 63 61 56 52 50 48 47 45 43 37 33 34 39 46 49 36 35 35 33 29 29 28 28 28
68 72 75 78 80 82 79 78 75 74 74 70 66 62 58 56 53 49 46 43 41 39 37 35 35 37 41 43 41 36 30 27 26 27 26 26 27 26
72 74 77 79 82 80 77 76 73 74 70 66 61 58 55 50 45 43 40 38 34 32 35 40 39 37 36 36 34 27 24 23 23 24 24 25 29 31
72 75 78 81 81 77 78 72 74 71 66 61 58 53 47 42 39 37 36 34 33 36 37 39 34 33 30 27 23 20 20 22 21 21 21 26 28 30

GFSNE_250_spd_045.txt.gz
Wind_Speed
107 102 101 100 97 97 94 95 95 91 89 85 84 83 74 65 63 69 65 67 67 77 87 85 88 85 87 80 78 82 77 77 77 77 80 87 90 90
99 99 95 94 93 94 95 96 99 95 90 89 81 76 68 66 60 73 65 75 75 75 81 82 90 94 88 85 87 84 86 85 87 95 93 91 97 97
91 90 88 86 87 85 85 92 100 98 96 94 86 74 68 71 75 75 78 86 79 86 83 90 94 95 91 92 92 91 91 99 100 95 99 104 103 100
82 78 74 71 68 67 72 77 83 92 93 92 90 76 72 72 76 76 85 85 91 92 93 99 103 103 101 100 101 102 95 99 103 109 108 107 103 100
78 76 70 62 57 56 55 59 61 67 69 77 83 79 76 77 78 75 83 86 90 99 100 101 104 103 106 106 107 107 109 112 113 112 112 108 104 97
67 71 67 58 51 46 43 43 46 49 53 60 72 75 74 76 72 77 82 88 91 97 101 100 102 105 108 111 115 115 113 114 116 115 112 106 97 90
55 56 56 51 44 37 32 30 31 35 41 48 57 69 71 70 71 77 83 88 95 101 103 108 108 114 115 117 113 112 113 117 112 109 102 97 88 84
50 46 43 41 38 33 26 21 19 21 25 30 37 50 53 59 62 69 74 78 89 98 104 109 111 114 111 107 106 102 102 99 96 91 88 87 86 86
45 45 42 39 37 34 28 23 19 16 15 16 19 22 27 34 40 50 54 62 67 72 78 84 83 86 89 90 91 91 90 90 90 90 90 89 88 87
41 40 40 40 38 36 33 31 30 28 28 27 28 30 33 37 43 49 53 59 63 67 74 78 82 86 88 89 91 91 90 89 88 88 89 89 90 90
40 40 42 42 42 41 39 38 37 36 36 36 38 40 45 48 54 59 63 68 71 74 79 86 87 91 93 92 91 91 91 90 89 89 88 89 89 88
41 41 42 42 44 44 43 42 41 41 43 45 47 50 54 58 63 67 71 76 80 84 86 91 91 94 96 92 90 89 87 85 85 84 83 82 80 77
45 45 46 48 49 49 50 50 49 50 51 53 56 59 63 66 69 72 77 81 84 87 87 88 87 86 89 93 87 85 82 81 78 74 73 72 71 70
50 50 52 54 55 57 58 57 56 56 58 61 64 67 69 71 74 76 79 80 79 77 77 79 82 79 79 79 79 75 70 70 67 65 66 64 64 64
55 57 58 60 62 64 64 63 62 64 66 69 71 73 75 74 75 77 74 73 75 74 73 70 70 70 70 69 71 71 66 64 58 57 57 54 52 49
58 61 63 65 67 69 68 66 68 71 74 74 74 76 76 76 73 71 72 72 71 66 62 60 60 61 62 60 61 62 54 54 46 41 44 45 41 42
63 66 68 69 71 69 69 72 74 76 76 77 76 75 75 71 70 70 69 67 63 61 56 52 52 52 53 53 52 52 50 43 39 40 36 38 37 43
66 68 69 69 69 71 73 75 76 77 77 78 75 73 69 69 69 66 63 60 60 57 54 48 45 45 46 50 45 49 42 36 35 37 40 41 42 37
64 65 66 69 72 74 76 78 78 77 77 74 72 69 69 68 66 61 57 56 55 53 50 46 42 38 40 44 44 38 38 35 38 45 41 40 38 32
61 65 68 72 75 78 79 78 77 76 74 72 69 69 67 66 60 57 53 49 47 46 45 41 36 34 34 37 43 42 30 35 42 41 34 36 32 31
63 67 72 75 77 79 79 78 77 73 70 70 70 68 64 59 57 51 47 43 42 40 40 35 30 30 32 38 45 48 36 33 37 32 28 32 30 28
68 72 76 78 78 79 77 76 72 68 69 70 69 65 60 57 52 46 42 41 40 38 38 37 35 36 36 39 41 37 30 30 29 28 27 28 29 27
72 75 79 80 78 76 74 70 66 67 69 68 65 59 57 51 46 43 41 40 39 38 37 36 33 33 32 32 30 25 25 26 27 26 24 26 28 28

GFSNE_250_spd_048.txt.gz
Wind_Speed
109 111 98 99 93 94 93 90 89 91 90 94 96 89 85 82 77 74 70 65 63 51 58 68 68 63 73 76 77 82 85 86 88 85 77 71 72 71
107 98 92 89 86 88 91 87 84 82 83 83 83 83 86 86 81 78 76 72 60 66 66 73 68 69 71 78 77 83 84 80 79 75 79 84 79 78
94 85 83 80 80 85 88 83 76 73 72 68 68 71 75 81 83 83 83 77 76 76 83 89 81 80 77 82 84 86 91 92 90 90 88 90 93 93
82 78 72 71 74 77 84 82 72 65 57 55 59 64 61 69 77 83 84 79 82 75 83 80 81 86 89 91 90 89 93 95 100 99 100 103 103 100
74 66 61 63 65 65 69 75 66 57 50 44 45 48 48 50 63 77 78 78 78 77 82 88 83 86 97 99 98 99 102 103 103 103 102 105 105 101
61 55 56 56 56 58 59 60 61 54 44 37 32 33 38 43 53 62 69 71 76 79 84 90 92 92 96 99 102 104 106 107 108 110 114 115 113 113
50 51 52 51 51 53 54 53 48 46 43 34 28 27 26 35 47 57 63 70 73 77 83 90 90 93 95 99 104 108 111 110 109 110 113 117 117 115
46 47 48 48 49 50 50 47 44 42 38 32 29 26 22 22 24 29 37 41 48 58 70 78 82 88 94 101 104 104 105 112 114 115 117 119 118 116
44 45 47 47 49 51 52 52 50 49 45 42 39 35 31 28 27 29 31 34 39 42 48 58 55 65 67 72 78 84 87 92 99 100 104 104 101 97
44 45 47 49 51 52 54 55 54 53 53 52 50 47 43 41 41 42 44 47 51 54 59 63 66 69 71 74 78 81 84 87 90 92 93 95 97 97
44 46 49 51 52 55 57 59 59 58 58 57 54 51 49 49 51 54 56 60 63 66 71 74 77 79 81 83 86 87 88 90 91 92 93 94 95 96
46 49 51 53 55 58 61 62 63 63 64 62 59 56 55 55 56 60 63 65 68 71 75 81 84 86 88 89 90 91 92 93 92 91 89 90 89 89
50 53 54 56 58 62 65 66 67 69 68 67 65 64 64 66 67 67 68 71 74 77 78 80 84 85 87 87 86 85 87 88 88 87 86 85 82 80
52 55 57 60 63 65 67 69 70 70 70 69 70 71 71 71 72 73 74 77 78 77 77 77 78 76 78 82 83 79 78 77 75 73 71 71 71 69
54 56 59 61 63 66 68 69 70 70 72 73 75 76 75 74 75 76 77 75 74 72 72 74 76 75 74 73 75 74 71 67 66 64 61 62 62 60
55 57 58 61 64 66 66 67 69 72 75 78 78 77 75 75 76 75 73 71 72 72 72 69 67 65 63 62 62 69 64 62 55 47 49 52 52 50
56 58 60 61 62 63 66 69 73 76 80 81 78 75 74 74 72 70 70 72 72 68 63 57 57 57 56 56 57 59 60 56 48 43 39 42 46 43
54 55 56 57 60 64 69 73 77 81 84 81 75 74 73 69 69 71 71 69 65 60 58 52 47 45 46 50 50 52 51 48 42 36 33 35 42 34
51 54 57 60 65 69 73 77 81 85 83 77 73 72 69 70 72 70 65 60 57 54 51 45 41 41 43 44 45 41 42 38 34 31 31 35 44 39
56 59 62 65 68 72 76 80 84 84 77 74 72 69 69 72 70 63 58 53 49 46 44 40 41 42 42 42 43 36 25 33 35 38 41 41 39 36
60 63 65 67 70 75 79 84 86 80 74 71 69 68 69 69 64 58 52 46 44 43 42 39 37 37 38 40 43 42 35 27 31 38 40 33 28 34
63 65 68 71 74 78 82 87 84 75 71 68 66 68 67 64 60 52 47 44 41 40 39 39 37 35 34 36 34 33 30 28 30 30 26 24 27 26
66 68 70 74 78 81 86 87 78 70 65 64 65 66 63 60 52 47 43 40 38 36 34 31 30 27 25 24 25 24 24 23 24 23 23 25 25 25

GFSNE_250_spd_051.txt.gz
Wind_Speed
116 109 99 99 102 105 96 90 87 80 73 79 81 82 76 70 66 73 88 87 81 78 74 70 73 72 72 68 67 65 62 66 68 67 72 71 73 72
104 96 97 100 102 93 88 82 77 72 71 74 77 78 69 61 60 63 76 83 80 74 73 75 73 70 77 78 73 68 66 70 73 72 76 80 79 78
95 95 100 100 88 84 78 73 67 67 66 70 76 77 66 54 47 50 57 68 66 66 69 76 70 70 77 81 79 71 72 78 78 75 75 76 77 75
93 99 96 85 79 76 68 62 62 61 61 63 69 71 63 48 39 36 38 50 59 62 68 70 72 73 77 80 81 79 76 84 80 81 79 83 86 88
96 92 80 75 72 65 58 57 57 57 58 60 62 65 60 49 40 32 28 35 45 56 64 71 73 81 81 84 85 85 85 87 89 93 96 92 94 92
86 77 73 69 62 56 54 55 55 57 57 58 57 56 55 53 49 42 34 30 37 48 61 68 75 78 79 82 85 92 94 98 100 101 101 100 99 103
74 70 67 61 55 55 54 54 55 56 58 59 60 58 55 49 43 41 37 32 29 31 37 51 66 77 81 80 86 92 96 100 102 102 101 105 107 110
67 64 60 55 52 53 54 55 57 58 59 60 61 61 61 56 51 44 39 36 35 34 32 34 41 48 54 64 72 88 97 104 102 101 101 104 109 113
62 61 55 54 52 52 55 58 59 60 61 64 64 65 63 59 56 53 49 46 43 41 43 48 45 51 53 57 62 65 70 77 82 89 95 101 104 102
58 56 53 54 53 54 56 58 60 62 65 66 67 67 64 60 57 54 53 53 54 55 57 61 59 61 63 66 70 73 75 78 80 83 85 87 89 90
54 54 54 54 55 57 59 60 63 65 66 68 68 67 63 59 59 59 60 60 61 60 61 64 67 71 73 77 80 82 83 85 87 88 89 89 91 93
51 52 52 54 56 58 59 61 63 65 67 68 68 65 63 65 65 67 69 69 68 68 69 72 73 75 76 79 82 84 86 88 90 90 90 90 89 90
50 50 51 52 55 58 59 62 64 66 67 66 65 66 68 70 72 75 76 74 73 72 71 72 73 72 74 76 77 78 79 80 81 81 82 82 83 85
48 49 51 53 55 57 59 62 64 66 64 64 67 69 72 75 78 81 79 76 73 71 70 69 70 70 72 75 78 75 76 76 76 77 76 75 77 80
49 50 52 54 57 59 61 61 61 61 64 68 71 74 77 79 83 83 77 74 72 70 69 70 71 73 73 73 73 72 69 66 68 68 65 65 68 70
48 50 51 52 53 54 55 57 61 66 69 72 74 77 80 83 85 78 75 74 72 70 72 70 67 65 65 64 66 67 58 59 58 56 57 60 60 62
42 45 47 50 53 56 60 63 67 69 71 73 77 80 83 86 81 76 74 72 71 72 68 62 60 59 58 58 57 54 52 48 46 43 42 48 51 51
49 51 54 55 57 59 62 65 68 71 73 77 79 82 85 83 76 72 70 69 72 69 63 57 50 46 49 50 46 46 45 44 39 36 35 34 40 40
51 53 54 56 58 61 64 67 70 73 76 79 82 84 84 77 71 69 67 69 67 62 56 47 44 42 42 43 44 36 39 40 38 35 29 27 34 34
54 56 59 61 64 67 69 72 73 76 80 82 84 83 76 69 67 64 66 66 60 54 48 39 38 38 38 40 40 35 31 36 38 38 35 35 38 41
57 60 63 66 69 71 74 77 79 81 83 84 81 76 68 66 63 63 66 60 53 48 42 35 34 34 33 32 33 32 29 28 32 31 27 27 28 32
61 65 69 72 74 76 79 80 82 83 83 80 75 70 65 62 62 64 62 56 47 40 35 32 32 30 29 29 28 27 26 26 25 24 23 23 24 23
67 69 73 76 78 80 81 81 82 82 78 74 71 66 62 63 63 62 58 49 43 35 30 26 27 27 26 26 27 25 24 22 23 25 24 22 22 22

GFSNE_250_spd_057.txt.gz
Wind_Speed
105 104 107 105 105 106 103 100 96 91 87 88 92 90 79 71 67 62 57 56 60 64 67 63 60 56 43 38 48 61 64 61 66 71 68 65 63 65
105 106 102 102 104 101 98 94 92 89 86 90 89 79 71 67 64 58 57 57 60 63 67 62 55 49 34 26 40 54 62 65 70 73 75 70 66 66
102 102 101 99 96 95 92 90 89 86 86 86 80 70 68 64 58 55 56 57 61 63 62 62 54 48 39 30 26 40 50 69 70 73 73 75 72 72
97 96 96 91 89 90 88 86 85 85 83 77 70 68 64 60 55 55 56 58 61 61 58 54 52 44 36 30 27 26 41 60 64 72 75 73 75 80
92 90 88 85 86 85 84 84 84 81 74 67 67 64 61 55 54 55 56 59 61 61 58 50 43 42 40 34 32 31 33 39 53 64 75 79 79 78
88 85 81 80 81 81 83 84 79 69 64 64 62 60 56 53 53 55 58 59 61 59 56 48 46 44 41 39 38 37 37 38 44 56 68 76 84 90
82 76 77 77 79 81 81 74 66 62 61 58 57 55 52 52 52 56 58 61 61 59 56 49 47 47 47 48 48 45 44 47 49 49 55 75 89 89
74 74 74 76 78 77 69 62 59 58 55 54 53 51 51 51 52 55 59 61 61 60 56 53 55 54 54 54 54 55 57 57 55 58 60 60 63 73
69 72 75 78 74 67 61 59 57 53 50 49 50 49 50 52 54 57 60 60 58 57 61 62 61 60 60 60 62 63 64 64 63 64 65 68 70 70
68 73 75 71 65 60 58 55 53 51 49 49 48 49 51 54 56 58 57 57 60 62 65 67 67 66 66 67 68 70 71 70 66 63 64 68 71 75
71 70 68 61 58 56 52 49 48 48 48 47 48 49 51 53 54 56 59 61 62 65 68 70 70 71 71 72 73 73 68 64 63 63 64 65 67 70
70 68 61 53 53 49 46 45 44 44 43 44 45 48 51 54 55 57 60 63 66 69 72 74 74 76 76 75 72 68 63 59 57 58 60 63 65 69
67 63 56 53 50 45 41 40 40 42 46 48 49 50 52 54 56 60 64 67 69 72 76 78 78 76 73 72 67 61 57 54 56 59 63 66 69 72
65 61 54 53 53 49 47 47 48 49 50 50 51 53 55 58 62 66 70 73 75 77 79 79 77 73 70 69 66 59 53 56 61 59 58 60 62 65
64 57 57 53 53 53 52 53 52 53 54 54 56 58 61 65 68 72 76 80 81 82 80 76 73 69 66 65 64 58 56 56 52 53 54 53 54 55
64 59 56 56 55 54 54 54 55 56 57 59 62 65 69 72 74 78 81 84 85 82 78 75 69 65 62 60 61 61 56 54 49 48 47 49 51 49
62 57 58 59 59 59 58 58 59 60 62 62 65 69 72 74 78 81 84 87 85 82 75 66 62 61 61 63 62 60 55 48 48 43 42 42 41 43
65 61 60 60 61 61 60 61 62 63 65 67 70 72 74 77 81 84 87 86 83 79 72 64 58 56 58 62 61 61 52 47 42 40 37 38 36 36
65 65 62 63 64 63 61 61 60 63 66 70 73 74 77 81 84 86 85 83 79 71 66 62 60 59 59 61 64 54 45 44 39 34 33 34 34 32
68 65 65 65 64 61 60 60 62 65 69 71 74 77 81 84 86 84 81 75 68 66 66 63 61 61 58 55 58 48 29 39 34 28 27 28 30 30
66 66 66 66 63 60 60 62 64 67 70 72 76 81 83 84 83 77 70 65 64 64 65 65 61 55 47 45 47 42 26 30 29 24 22 24 22 24
65 67 66 64 62 62 62 65 68 69 72 77 81 83 82 80 73 67 65 65 63 62 63 62 54 46 40 39 35 26 20 22 23 21 20 25 25 17
65 65 65 63 63 63 65 69 71 74 78 81 81 80 78 71 64 65 64 63 63 60 58 53 44 36 33 29 23 15 13 18 19 19 15 17 25 34

GFSNE_250_spd_060.txt.gz
Wind_Speed
106 107 109 110 109 108 108 108 108 96 93 93 87 90 87 85 84 80 70 66 62 58 52 51 53 58 58 54 50 47 43 29 32 57 64 61 63 66
109 107 108 108 108 106 104 99 97 94 90 85 87 85 84 84 81 73 65 64 60 55 51 50 53 55 56 57 53 46 36 22 27 48 62 64 67 69
105 106 104 101 104 98 93 94 88 86 83 84 84 83 83 79 72 65 64 60 56 52 51 50 52 51 55 52 51 47 36 24 20 34 58 67 70 72
106 102 98 98 89 92 87 85 86 83 82 82 82 81 78 71 65 64 60 57 52 51 51 51 50 51 51 51 44 40 34 31 27 30 32 53 68 71
98 96 90 87 85 84 84 83 80 81 81 81 80 77 70 65 64 60 57 54 51 52 51 50 51 52 50 47 44 40 39 36 32 32 32 43 62 72
93 88 87 79 81 85 82 79 79 80 80 78 73 67 64 60 58 56 54 52 51 51 51 51 51 52 47 45 46 48 46 45 42 38 38 41 46 64
83 80 76 78 77 80 75 76 77 78 75 69 64 61 56 55 54 52 50 49 50 51 52 52 50 49 51 51 50 49 50 50 48 48 49 49 49 52
74 73 75 75 78 73 72 74 74 72 67 61 59 55 53 51 51 49 49 50 51 51 50 50 52 53 54 55 54 54 55 55 54 54 57 59 59 60
69 72 70 71 70 68 68 71 72 65 59 56 54 52 51 50 50 49 48 47 48 52 52 50 52 56 58 60 62 63 63 62 61 62 64 65 67 69
68 69 63 65 67 67 69 70 65 57 54 52 49 48 47 45 44 45 47 49 50 51 53 54 56 60 64 66 67 68 69 68 65 66 67 66 67 66
62 57 61 63 67 67 69 69 62 55 53 51 48 46 45 47 48 49 50 51 52 54 57 60 64 67 70 72 72 72 72 70 68 66 64 62 61 62
56 59 61 67 68 68 67 68 62 57 55 55 54 53 53 52 52 52 53 55 57 61 64 68 70 73 76 77 77 75 72 70 66 63 61 59 58 57
60 63 66 63 63 68 67 65 61 59 55 57 59 59 57 56 55 57 58 61 64 67 69 72 73 76 79 81 78 75 71 65 61 59 57 55 55 56
62 64 63 63 66 68 69 65 59 60 58 57 59 60 60 60 61 61 63 65 67 69 71 74 77 80 83 83 79 73 64 61 60 56 55 55 59 60
62 61 61 64 67 68 68 64 62 63 59 58 61 62 62 64 66 66 68 69 70 71 75 77 81 85 84 82 78 69 62 60 58 58 59 60 59 57
64 62 63 65 67 70 71 69 65 64 63 62 63 63 64 65 66 67 67 70 73 75 77 81 85 84 83 78 71 68 65 63 58 56 58 59 57 52
56 61 64 68 71 74 73 69 66 66 65 65 65 64 64 65 66 67 68 71 76 78 82 83 83 83 78 72 70 67 66 62 57 57 58 57 51 46
62 68 68 71 74 74 70 66 67 68 66 66 65 65 65 66 67 68 70 75 79 84 85 82 78 70 68 70 68 68 64 60 57 55 54 53 45 39
66 69 73 74 75 70 67 67 68 68 67 68 67 67 67 67 69 71 75 79 84 84 82 76 66 65 64 66 71 64 60 53 49 48 46 43 39 31
70 73 75 71 69 68 69 69 68 68 68 68 68 68 69 71 73 75 79 83 82 82 76 66 63 61 63 64 66 62 51 44 40 41 38 32 29 26
72 70 68 69 70 66 65 66 68 68 68 69 69 70 72 74 76 80 82 81 79 73 68 65 60 60 60 59 57 51 42 36 37 31 26 23 23 22
66 69 67 65 64 63 65 67 68 69 70 70 71 72 74 77 79 81 80 79 71 65 64 63 61 59 55 51 46 37 31 28 26 21 17 18 22 17
64 64 64 63 63 63 65 67 68 68 68 69 70 72 75 77 78 78 75 68 65 64 61 61 59 57 51 42 34 24 23 24 25 21 18 19 20 21

GFSNE_250_spd_063.txt.gz
Wind_Speed
102 101 103 105 108 110 112 116 114 119 107 114 113 107 103 92 94 86 82 80 77 74 65 61 59 56 52 49 49 48 48 46 43 40 36 30 35 59
107 108 110 110 111 113 113 117 118 114 114 109 103 101 94 94 90 84 80 78 73 66 61 59 56 53 50 48 48 48 45 48 40 37 31 21 25 47
112 112 112 112 115 116 118 114 111 112 111 99 98 90 90 88 85 81 78 72 66 61 58 55 53 50 49 48 45 47 45 38 36 31 27 23 17 46
115 115 115 112 116 114 113 102 108 105 95 89 85 84 86 83 80 77 71 66 62 56 53 51 49 48 47 46 44 42 40 36 38 37 33 26 22 33
116 114 115 114 108 102 105 102 96 87 86 81 83 83 83 79 76 70 64 59 56 51 49 48 47 48 48 45 41 37 38 39 38 36 36 34 29 34
106 107 104 97 99 98 92 90 82 83 80 78 81 78 78 76 69 63 58 54 50 49 47 47 48 48 46 42 42 41 38 38 38 38 38 38 38 38
94 90 88 89 85 83 78 79 81 74 73 77 74 76 74 69 61 56 54 52 50 49 49 48 46 45 45 43 42 42 42 43 44 44 44 45 46 45
84 85 81 79 76 77 73 75 73 72 74 71 74 75 72 64 57 54 50 46 45 44 44 47 48 47 46 47 46 47 49 50 51 52 52 51 52 53
81 78 77 79 75 70 70 69 69 68 67 68 73 75 69 61 56 54 53 51 51 51 50 49 50 51 51 52 53 55 57 58 58 59 60 60 58 56
75 74 73 70 64 66 66 66 64 65 67 71 72 70 69 61 57 56 56 57 57 56 56 55 55 56 57 59 60 61 63 63 64 65 66 66 64 63
71 68 65 63 62 62 64 62 63 65 70 69 69 69 68 66 60 58 58 59 59 60 61 61 60 60 61 62 64 67 68 68 70 71 71 69 65 63
61 59 61 59 59 65 58 62 66 70 69 69 70 69 67 63 62 61 60 61 61 63 64 66 66 66 65 67 69 71 71 72 74 74 72 68 63 61
57 57 59 59 59 57 61 62 66 69 69 69 72 69 68 63 60 60 62 63 64 65 65 66 65 66 68 70 72 73 75 77 78 74 69 63 58 57
58 59 57 54 58 62 64 66 68 69 69 71 73 73 72 69 64 64 64 65 65 64 66 65 66 67 70 74 75 77 79 78 77 73 64 60 60 60
57 54 55 56 57 61 65 66 70 69 69 72 74 76 75 69 65 66 65 66 65 65 65 66 67 70 73 76 80 83 81 77 69 61 60 63 64 62
51 55 56 58 62 65 66 69 69 68 70 74 77 75 71 68 67 67 66 67 67 67 67 68 70 73 76 80 84 83 77 68 61 61 62 62 63 63
56 59 57 59 63 66 70 71 73 72 74 75 76 71 69 70 69 67 68 68 69 69 69 71 73 75 79 83 83 76 67 62 62 62 61 61 62 61
58 59 62 63 66 66 71 73 73 73 75 76 69 70 70 65 68 70 69 70 71 71 71 71 74 77 80 82 75 67 63 61 61 60 58 56 57 53
63 66 68 70 74 72 71 71 72 76 74 71 70 65 65 67 69 70 72 72 72 72 72 73 75 76 76 71 68 63 62 59 54 55 53 49 47 44
65 66 66 65 67 69 71 74 74 70 70 66 66 66 67 67 69 70 70 69 70 71 73 74 75 72 65 61 64 64 57 54 50 48 44 40 37 34
62 63 65 66 70 72 69 68 69 68 66 65 64 65 66 68 69 69 69 69 71 73 76 74 68 62 61 59 58 60 54 45 44 41 36 30 25 21
65 67 67 66 66 68 68 67 66 65 62 63 65 66 69 72 72 72 73 74 74 75 74 68 63 62 61 57 56 54 53 44 36 31 28 25 21 18
63 64 66 66 66 66 65 63 60 61 63 64 67 71 73 73 73 74 74 74 74 72 65 64 63 62 60 55 52 51 49 40 33 29 26 24 20 20

GFSNE_250_spd_066.txt.gz
Wind_Speed
101 103 103 103 105 106 108 108 112 110 113 117 118 122 121 123 119 115 104 101 93 86 79 73 67 61 55 49 47 44 42 40 43 43 41 36 37 36
112 111 110 110 112 113 113 113 112 115 115 117 118 124 123 118 114 104 96 92 84 78 74 68 61 55 49 45 43 41 39 40 42 41 37 34 35 35
115 114 115 113 114 114 112 114 113 114 119 118 116 115 110 109 97 93 87 82 78 73 68 61 55 49 44 42 40 39 38 38 40 36 36 34 31 28
115 115 117 116 116 116 113 110 113 113 112 115 113 107 99 88 88 76 80 80 74 69 62 55 49 44 41 39 38 38 38 36 32 34 32 33 31 26
113 115 116 114 109 114 106 110 105 107 102 93 94 89 87 80 74 76 79 75 71 66 58 49 45 43 40 38 38 37 36 37 35 32 32 29 29 29
102 102 101 99 102 98 97 97 102 89 88 87 85 81 76 71 72 76 73 73 69 63 55 47 43 42 40 40 39 39 39 36 35 34 34 36 36 35
95 92 94 90 87 86 85 85 88 87 80 81 77 73 70 69 71 70 71 71 68 60 54 51 47 46 45 47 45 44 43 42 40 40 41 43 43 43
91 89 90 94 92 84 85 88 82 80 79 74 67 68 66 66 68 68 71 68 67 58 52 52 51 50 51 51 50 49 48 48 47 47 48 48 48 47
91 93 94 90 91 89 84 76 75 74 71 67 64 63 65 65 65 70 68 68 65 63 58 54 52 53 53 53 53 54 54 53 53 53 54 54 53 52
88 89 87 86 85 83 80 72 68 64 64 60 62 65 67 66 67 68 69 68 65 62 61 58 55 54 55 57 58 57 57 57 58 58 58 59 58 57
82 81 79 76 75 74 69 64 58 61 59 58 61 65 65 65 67 70 69 69 67 67 65 61 60 59 60 59 58 60 59 59 59 59 61 62 62 64
75 73 70 67 65 61 58 53 54 56 58 61 61 66 67 69 69 70 71 70 70 71 66 60 61 61 61 61 60 60 60 60 61 63 65 66 68 71
63 61 60 58 56 54 52 51 54 59 58 59 65 67 66 68 69 70 71 71 71 74 66 63 62 61 61 61 61 62 62 62 64 67 69 71 74 75
58 57 54 52 51 51 55 60 60 56 59 62 66 65 66 69 71 72 72 73 75 69 64 64 63 61 62 63 64 64 64 65 68 70 73 76 77 74
52 52 53 54 52 52 55 55 52 56 61 63 67 68 69 73 75 75 72 74 72 68 65 62 63 64 64 67 70 67 68 70 71 73 75 75 73 68
52 53 53 53 51 50 51 52 55 60 65 68 69 71 72 72 74 72 75 73 70 64 62 63 64 67 69 69 71 71 71 73 73 73 71 67 62 62
48 49 48 48 51 54 55 57 60 64 67 68 70 71 73 76 73 75 73 69 65 63 62 63 64 65 67 68 69 70 72 73 71 68 59 60 61 60
50 53 54 57 58 59 62 65 68 68 69 72 74 75 71 74 77 72 68 65 64 62 64 66 68 69 69 72 72 75 73 68 63 57 57 56 61 59
53 57 59 62 63 65 66 67 70 72 72 70 67 71 74 75 70 68 64 62 62 64 67 70 70 70 73 75 78 71 67 60 57 56 52 52 57 55
55 56 57 60 63 65 66 65 65 66 67 69 73 74 72 70 67 64 61 62 64 68 72 72 71 71 71 71 73 73 60 59 56 54 51 50 48 47
51 54 55 57 59 61 62 65 67 71 73 72 70 70 69 66 62 61 63 65 69 73 74 72 71 70 70 67 65 66 64 57 51 49 49 50 45 37
56 58 61 64 65 67 67 66 66 67 66 66 65 63 62 61 62 64 67 71 73 74 73 72 70 69 66 61 60 60 62 58 50 46 48 46 44 33
57 59 61 62 62 62 61 61 61 62 63 63 61 62 62 64 67 69 72 74 73 72 69 69 67 64 63 60 58 59 58 54 52 51 49 41 41 33

GFSNE_250_spd_069.txt.gz
Wind_Speed
106 106 104 106 107 108 110 110 110 111 113 111 114 114 111 112 114 112 113 116 104 99 91 86 79 73 67 63 54 49 43 39 37 36 35 34 34 32
108 108 109 108 109 109 110 109 111 113 115 114 115 112 110 109 104 105 104 97 88 87 80 77 74 66 62 55 49 44 39 35 33 34 35 34 32 31
109 108 108 110 109 110 110 113 112 111 110 103 101 103 102 101 97 98 92 88 83 75 75 73 69 65 59 51 45 40 38 35 33 34 34 33 32 32
106 106 109 108 107 108 108 104 103 102 100 100 97 94 93 86 84 86 81 76 73 69 69 69 65 61 55 50 43 35 34 33 31 31 33 33 33 31
106 107 104 105 104 104 102 101 100 98 98 96 95 88 90 87 87 79 73 70 68 68 65 66 63 59 54 48 44 42 38 36 35 35 34 34 34 33
104 104 103 104 104 103 102 100 99 95 97 91 91 89 86 82 78 74 68 64 66 64 65 64 64 59 55 49 45 44 44 42 39 36 36 35 36 36
102 101 100 99 99 99 97 96 94 90 87 87 87 86 84 80 74 69 62 66 61 64 64 63 63 58 54 53 49 47 46 45 44 42 41 41 40 41
102 101 99 99 98 96 94 94 87 87 83 83 83 80 79 73 73 62 61 59 63 66 59 61 63 61 58 55 53 50 49 48 47 47 48 48 47 47
99 97 95 93 92 89 86 86 82 80 81 79 76 75 71 66 59 58 60 61 64 63 63 63 63 62 59 58 58 53 51 51 51 51 51 52 52 50
92 90 88 87 85 82 80 80 78 77 76 73 70 67 62 54 55 55 58 63 63 64 65 64 62 62 62 62 62 55 53 54 54 53 52 51 52 53
83 82 83 81 79 77 75 73 75 73 68 62 61 56 51 53 52 57 62 63 64 66 67 66 64 65 63 64 61 55 55 55 55 54 54 53 54 56
76 75 73 72 72 69 68 67 64 61 58 54 52 48 49 53 55 57 60 62 66 66 68 67 68 67 65 68 63 59 54 54 55 55 55 56 57 59
70 70 68 66 65 64 61 59 56 52 49 49 47 47 52 55 59 61 63 65 66 69 68 67 69 66 70 67 63 58 54 55 57 58 59 60 61 61
62 61 60 59 57 56 55 53 50 47 48 49 51 53 57 58 60 63 66 68 68 70 70 67 70 69 72 65 61 57 55 57 59 58 59 60 62 65
55 55 55 53 50 51 50 49 47 50 52 51 54 57 56 61 63 67 68 69 69 70 69 72 70 71 67 63 61 58 59 60 63 63 64 65 67 71
48 49 49 49 49 50 51 52 53 55 54 58 59 58 61 64 67 70 70 70 71 71 66 71 71 67 64 62 62 62 63 67 66 67 68 70 71 71
42 43 45 45 45 46 48 51 52 55 57 58 61 64 66 68 70 70 70 71 67 66 69 71 68 66 63 62 64 65 69 70 70 70 70 71 71 66
39 39 42 44 46 48 49 50 53 56 59 62 66 68 70 71 70 69 67 67 69 71 70 68 67 64 62 65 66 71 73 72 71 71 70 68 67 61
43 45 46 47 50 51 54 55 58 63 65 65 66 67 66 65 66 66 67 71 72 70 68 66 63 62 65 69 73 74 73 72 71 70 65 59 59 64
42 45 50 53 55 55 53 53 55 58 60 61 62 63 65 68 70 70 69 69 68 65 64 62 63 65 68 72 77 77 70 70 69 66 61 58 55 58
43 44 46 48 50 52 55 58 60 61 63 65 67 69 68 67 69 68 66 64 63 64 66 66 68 69 70 70 71 73 72 68 62 60 58 56 56 58
47 49 51 54 57 57 56 58 59 61 63 63 63 64 64 66 66 66 65 65 65 68 71 71 69 66 65 65 66 67 68 64 60 58 58 53 53 55
50 51 53 55 56 57 57 59 60 62 63 65 65 67 68 68 69 70 69 68 67 67 67 66 65 64 66 62 62 62 62 59 58 59 58 49 50 51

GFSNE_250_spd_072.txt.gz
Wind_Speed
110 114 113 113 113 110 107 107 106 105 106 104 106 106 106 107 107 103 100 97 100 100 93 91 90 84 71 66 64 59 54 49 43 39 35 34 33 33
117 115 110 109 109 109 109 108 106 106 105 104 103 103 102 100 97 96 97 97 96 92 89 85 79 70 66 63 61 57 54 47 41 39 34 34 34 34
112 110 109 107 107 106 104 102 101 100 100 100 100 98 97 97 97 94 92 90 90 88 86 76 71 68 60 61 59 56 52 45 40 39 35 32 31 31
109 105 105 105 105 102 101 102 99 100 100 101 99 98 97 95 92 90 87 86 82 81 77 73 68 63 58 57 59 54 51 45 41 39 39 38 35 33
105 103 102 101 100 99 100 99 98 98 97 96 95 94 93 92 92 91 88 83 78 72 73 66 64 60 56 55 58 54 53 48 42 40 40 41 40 37
106 105 103 100 98 98 96 97 97 97 96 95 94 93 92 92 91 88 80 77 75 71 70 62 58 58 53 56 54 55 53 49 44 43 42 41 42 42
107 106 104 102 101 100 99 97 98 98 98 98 95 93 90 87 85 79 74 71 69 66 62 56 57 56 56 54 53 54 53 50 49 46 45 43 43 44
106 105 104 103 102 100 98 98 96 94 93 91 88 83 81 78 77 74 71 71 66 60 55 53 54 57 55 56 55 55 57 54 51 47 47 46 45 45
108 106 105 102 100 97 93 92 89 86 83 82 79 77 75 73 73 71 69 66 61 52 51 50 55 58 58 58 56 56 58 56 53 52 51 47 48 47
98 95 92 91 90 89 86 83 83 80 77 76 74 72 71 69 65 63 62 57 51 49 48 54 57 59 59 58 56 58 60 59 55 56 53 51 50 48
91 89 87 86 85 82 78 77 75 73 70 67 68 65 62 59 57 57 53 48 45 48 54 56 59 61 61 61 59 62 64 63 58 58 54 51 49 48
87 86 83 81 79 77 73 71 69 66 65 64 62 57 54 55 51 48 47 47 48 53 55 57 62 64 63 63 62 64 66 64 61 60 55 49 48 48
73 71 70 69 67 65 64 63 61 59 58 55 53 52 50 47 45 45 47 51 54 56 60 63 65 66 65 66 65 69 68 62 64 58 53 51 50 52
60 60 58 56 56 55 54 54 53 52 51 50 49 48 46 44 45 48 52 56 61 60 62 65 64 66 68 66 68 71 63 65 62 57 54 53 54 56
50 49 48 48 47 47 47 47 47 47 46 46 46 45 45 47 50 55 60 63 64 66 65 63 66 68 67 69 70 65 66 64 60 56 55 56 58 61
42 41 40 39 39 40 41 41 42 43 44 46 47 49 53 55 58 62 64 64 61 62 65 67 70 71 71 69 70 69 66 64 59 57 60 61 63 67
36 36 35 36 36 37 38 38 38 39 41 43 46 49 52 54 55 56 58 60 63 67 68 70 71 69 67 69 70 68 67 63 58 58 61 66 69 71
34 33 33 33 34 36 37 39 41 44 46 46 47 50 54 57 59 63 65 66 67 68 68 66 67 70 69 68 68 68 65 62 62 63 66 70 73 69
33 32 33 35 37 39 41 43 44 47 49 52 56 55 55 58 59 61 62 64 65 66 68 68 67 66 67 67 67 66 66 66 68 70 70 69 69 72
33 33 34 37 37 39 40 41 42 44 47 49 51 54 57 60 62 63 65 67 68 69 68 66 65 65 66 68 69 72 70 71 70 69 68 66 67 69
38 38 38 39 41 43 44 46 48 51 53 55 55 57 59 62 64 65 66 66 68 69 71 70 69 69 71 71 73 74 72 69 67 66 66 66 65 65
43 44 45 46 47 47 50 51 51 53 55 58 61 62 64 67 69 70 70 72 73 73 74 74 73 70 68 68 70 71 69 66 64 64 65 62 60 61
47 48 50 51 50 49 50 52 53 54 56 59 62 65 65 67 68 68 69 69 69 68 68 68 67 66 65 64 64 64 65 65 63 62 61 56 56 55

GFSNE_250_spd_075.txt.gz
Wind_Speed
112 111 108 110 112 113 114 119 118 115 113 108 107 103 102 100 97 95 92 90 90 89 86 85 82 81 81 80 73 68 61 58 55 47 43 39 35 33
116 117 120 121 122 123 121 118 115 111 108 101 101 99 97 95 96 92 89 89 87 84 85 81 82 81 79 77 68 63 57 55 51 46 43 39 36 34
128 125 123 122 120 118 116 111 108 104 102 100 97 95 93 91 89 89 86 86 86 84 83 83 82 81 76 69 67 59 53 53 48 45 42 38 37 35
122 121 119 116 114 111 110 107 105 104 102 98 95 93 93 90 90 89 88 86 84 85 85 84 81 77 68 65 61 55 50 49 47 44 41 40 38 37
120 117 115 112 112 111 111 109 108 105 102 100 97 95 94 92 90 90 89 90 88 86 85 80 73 72 63 61 56 51 49 48 47 45 42 43 43 42
121 120 119 117 115 114 113 110 107 105 101 99 96 96 94 94 92 91 90 87 84 80 79 74 69 63 60 58 55 48 49 47 48 46 44 46 46 43
120 119 118 117 114 111 109 108 106 105 101 98 100 98 94 90 88 83 80 78 77 75 70 65 63 60 57 55 49 46 48 46 49 49 46 48 49 46
115 114 114 113 112 111 108 106 104 104 99 95 95 91 87 83 80 77 75 71 71 66 63 61 59 55 52 45 45 48 49 48 49 48 49 50 51 51
113 113 113 111 110 108 105 102 99 95 90 87 85 84 81 77 74 71 70 66 63 59 58 55 52 49 43 44 45 51 49 51 53 51 51 53 53 53
108 108 107 106 104 102 98 96 92 89 85 83 80 77 72 69 66 63 61 58 54 54 53 50 47 44 43 43 47 52 52 53 56 54 54 56 56 58
100 100 101 99 97 95 91 90 86 81 77 75 73 70 67 63 62 58 55 51 50 48 47 45 43 43 44 47 51 53 55 57 57 56 59 59 59 58
92 91 91 90 86 83 79 76 73 69 66 64 63 61 59 58 54 50 49 48 47 45 43 43 45 47 49 52 54 56 59 57 57 58 59 61 61 55
75 75 73 71 67 63 60 59 58 56 55 54 53 52 51 49 46 47 47 45 43 42 44 46 49 51 53 55 59 58 60 58 58 60 61 63 60 59
62 62 61 60 56 54 53 52 50 48 47 45 43 42 43 43 44 44 44 44 45 47 49 52 53 54 57 59 61 63 59 61 64 65 66 65 62 63
57 55 53 53 50 49 47 45 43 41 40 40 39 39 39 39 39 41 44 46 50 52 53 53 55 59 63 63 65 63 65 65 67 67 66 65 66 64
49 47 46 45 45 43 39 39 38 36 35 35 35 34 36 39 42 44 46 47 49 52 56 58 58 57 59 62 66 67 67 67 66 65 69 68 66 63
45 41 42 42 40 39 38 36 36 36 36 36 36 36 38 40 40 43 46 50 52 54 57 60 62 63 66 68 70 69 67 67 65 67 68 68 64 61
42 39 38 37 36 34 33 32 32 33 35 36 38 39 40 42 44 45 48 53 56 59 62 64 65 65 66 68 69 70 71 70 68 65 62 63 65 64
40 36 36 35 34 33 33 34 36 36 36 37 39 40 42 44 47 48 51 53 56 59 62 64 66 66 69 72 72 72 70 66 65 65 64 66 71 71
39 38 38 36 35 35 35 35 35 36 38 40 41 43 45 49 51 52 54 56 58 61 63 65 66 66 67 68 71 74 71 71 70 70 68 68 69 71
41 40 38 38 38 39 39 39 41 42 44 45 47 50 50 51 54 57 59 62 65 68 70 72 73 73 73 72 73 74 73 70 68 66 65 66 68 69
39 38 38 39 40 42 45 46 47 47 49 51 50 52 54 57 59 62 65 67 69 69 70 71 70 70 70 69 68 68 69 68 65 64 65 65 64 66
37 37 40 43 45 46 47 49 50 49 49 50 54 55 56 60 63 66 66 65 66 67 68 69 68 68 67 65 63 64 65 65 63 63 63 62 62 62

GFSNE_250_spd_078.txt.gz
Wind_Speed
115 113 113 117 115 115 113 111 113 113 116 122 125 119 117 112 106 102 96 94 92 87 83 82 80 76 75 74 72 73 70 68 64 59 50 45 39 39
118 114 118 117 114 119 124 127 128 128 132 119 118 117 114 109 103 99 97 95 90 85 84 81 79 78 76 76 75 72 67 64 59 52 44 42 39 39
119 120 120 122 128 134 136 138 139 137 121 119 115 111 109 105 101 99 95 92 88 86 83 82 80 79 79 76 72 69 65 62 55 48 41 41 39 37
136 135 135 138 140 139 137 131 128 127 121 115 113 110 107 105 101 96 94 91 88 86 85 85 82 80 76 73 68 64 61 57 52 46 40 39 38 36
145 145 141 136 133 132 136 130 126 123 120 117 112 109 104 100 98 96 94 91 89 88 86 82 78 73 71 69 65 61 56 51 48 43 39 39 38 39
139 138 138 139 136 131 129 127 126 123 117 113 109 107 103 100 98 97 93 89 85 81 77 75 71 68 67 63 63 56 53 49 45 39 37 39 39 40
142 139 136 133 133 133 130 124 119 116 114 111 109 106 103 98 96 93 89 83 80 77 75 70 66 64 62 58 55 52 49 45 42 36 40 41 41 41
137 135 132 128 126 122 121 120 116 113 110 108 105 101 97 93 88 85 82 78 75 73 68 65 61 57 56 54 51 48 45 42 38 41 41 42 44 45
128 127 124 122 121 118 114 111 109 106 104 101 99 96 91 87 83 84 80 74 72 67 62 59 55 51 49 47 45 42 40 38 39 42 42 44 46 48
118 115 113 111 108 106 104 104 103 100 99 96 92 88 83 77 73 72 68 66 65 61 59 55 49 47 45 43 40 38 37 39 42 44 44 47 48 50
103 101 100 100 99 98 98 99 94 90 86 79 73 68 64 61 59 59 59 58 57 55 51 49 46 44 42 40 39 40 41 44 46 47 48 50 51 52
93 94 91 91 91 91 89 85 79 73 67 62 58 55 52 50 49 49 51 49 49 48 46 45 44 43 42 40 42 45 45 47 48 50 51 51 54 56
86 86 83 81 80 77 74 70 66 62 58 55 50 47 45 42 40 41 42 42 42 42 44 44 44 43 42 42 44 45 47 48 52 53 53 54 56 56
73 71 68 67 68 66 65 64 60 56 52 48 46 42 39 37 36 36 36 37 37 39 40 41 43 44 44 45 46 47 49 51 52 57 59 60 61 61
63 62 60 60 60 60 59 56 52 48 45 44 42 39 36 33 32 32 33 33 34 35 37 38 43 46 48 48 49 50 51 55 58 60 62 63 62 64
57 58 57 54 55 54 54 51 46 44 42 40 39 38 37 36 36 36 37 37 38 40 42 45 47 49 50 52 56 57 58 61 62 62 66 68 68 68
53 53 52 51 51 51 50 47 42 41 40 38 37 36 36 37 36 36 36 37 38 39 42 44 45 46 49 53 57 59 61 65 67 69 71 69 68 67
48 47 47 48 48 47 46 43 41 40 36 34 34 34 33 33 35 37 39 41 42 44 47 50 51 53 54 57 60 63 65 67 67 69 69 72 73 70
46 44 44 46 45 43 40 39 39 39 37 36 36 36 35 34 34 36 38 40 42 46 49 52 54 57 60 62 64 66 68 68 69 69 69 69 72 71
45 43 43 45 43 42 39 39 39 38 36 36 36 37 37 39 40 40 43 45 47 48 51 55 57 60 63 66 70 72 71 71 70 69 68 66 67 70
45 42 42 42 41 40 40 41 40 39 39 39 39 40 42 42 44 44 46 48 52 55 58 61 64 66 67 69 71 73 71 69 68 69 66 64 64 65
44 43 40 39 39 41 42 42 41 41 41 42 42 43 44 45 45 47 51 54 56 60 65 67 67 67 68 68 69 70 70 70 69 67 65 61 60 62
45 43 40 39 39 40 40 41 41 41 40 41 43 45 45 46 49 52 54 57 62 65 66 67 66 66 65 65 66 65 63 61 61 60 58 56 56 58

GFSNE_250_spd_081.txt.gz
Wind_Speed
106 106 110 108 110 112 115 110 107 110 114 118 116 122 129 128 131 129 118 123 114 109 106 99 91 83 79 76 73 71 69 68 66 62 60 55 50 46
117 117 117 118 120 120 117 120 118 125 122 123 131 132 135 136 132 130 129 119 114 111 101 94 87 83 79 77 74 73 70 66 64 59 57 52 47 43
123 117 116 121 126 118 118 119 123 127 131 129 137 140 142 141 139 129 122 119 112 103 99 92 87 83 79 77 75 73 69 64 61 58 54 49 46 40
116 117 122 124 117 121 117 124 129 131 143 146 142 140 142 134 126 123 120 111 107 102 96 91 87 83 79 77 72 68 64 61 57 54 51 47 43 37
125 129 135 126 130 135 139 143 146 150 149 141 144 146 135 131 126 119 113 108 101 96 92 88 84 80 75 71 67 64 59 58 55 55 50 47 41 37
140 141 142 142 144 149 154 150 145 142 146 149 143 135 128 122 116 109 102 99 95 91 87 82 79 75 69 66 62 58 55 54 53 51 47 44 40 37
145 149 152 156 157 148 145 147 152 151 145 139 133 125 118 109 104 103 97 93 91 89 85 80 75 72 67 63 59 56 53 51 50 47 44 43 40 38
156 152 148 149 147 150 157 150 145 141 135 125 116 110 105 103 100 96 93 89 87 82 78 73 67 64 62 59 54 50 49 48 45 44 43 41 40 39
149 152 156 158 158 151 144 137 129 120 114 110 106 103 99 96 94 89 81 73 70 67 63 61 57 54 53 51 49 47 45 44 43 42 41 40 39 42
156 157 156 148 140 131 124 117 112 108 105 102 100 97 90 86 78 69 63 58 57 55 51 50 47 46 46 45 44 43 43 41 40 40 39 39 42 45
137 134 130 124 118 113 109 106 102 99 96 95 91 84 76 69 61 57 54 51 47 45 44 42 42 41 41 42 41 41 41 40 39 38 39 41 45 49
115 112 110 105 101 101 99 94 93 90 86 81 74 68 63 58 54 51 47 44 41 39 37 38 39 39 40 40 39 39 39 42 43 45 46 49 52 51
102 101 100 98 96 91 87 82 77 73 71 67 63 59 55 51 47 44 40 38 36 34 34 35 35 35 36 38 38 39 39 40 41 43 46 47 49 51
93 92 90 86 81 77 72 67 62 62 62 60 57 53 49 46 43 39 37 34 32 32 31 32 32 33 32 33 34 33 35 39 42 45 49 50 51 53
84 80 76 74 69 64 61 58 57 59 58 56 53 49 45 43 40 38 36 33 32 33 32 31 30 31 32 32 35 39 41 43 44 47 49 52 55 56
71 70 68 62 57 57 56 56 55 56 55 51 48 45 42 40 38 36 34 33 32 33 32 32 33 35 37 40 43 44 47 49 50 53 56 59 61 64
65 63 59 55 55 55 55 53 52 51 51 46 44 42 38 37 34 32 32 32 31 32 32 33 34 36 39 42 43 44 46 48 51 55 58 61 63 65
61 58 55 53 53 52 51 49 47 47 46 44 42 37 36 37 35 33 33 31 32 34 34 35 37 40 42 45 49 50 52 54 57 60 63 66 69 70
58 55 54 52 50 49 48 45 44 44 43 42 38 36 37 37 36 35 34 34 35 36 39 40 42 46 48 49 51 54 54 56 59 62 65 68 73 74
56 55 52 51 50 48 46 43 41 41 41 40 39 37 36 37 38 37 38 40 40 42 43 43 43 45 48 53 55 57 59 63 65 67 68 70 73 75
57 56 52 50 49 47 46 42 40 40 40 40 38 37 40 43 43 43 42 40 41 41 42 43 47 51 54 58 62 65 63 64 66 67 67 67 69 70
58 57 52 50 49 46 44 41 40 42 42 41 41 42 43 44 41 40 39 39 41 44 46 48 51 55 59 62 63 64 64 63 64 64 63 61 61 64
59 58 53 50 48 45 43 42 43 43 42 42 43 42 42 40 41 41 42 43 45 48 50 53 55 59 61 63 64 62 62 59 57 55 54 53 54 56

GFSNE_250_spd_084.txt.gz
Wind_Speed
84 83 89 93 98 98 104 110 112 110 112 120 120 111 111 111 106 116 121 128 133 135 137 137 135 127 113 107 99 87 82 77 71 68 66 63 60 56
93 95 99 97 104 109 112 114 115 114 119 120 123 122 117 115 127 130 137 136 144 141 138 138 129 121 110 94 89 84 79 75 72 69 65 63 59 53
101 101 112 118 111 119 119 119 122 122 123 123 131 128 122 133 136 137 140 144 144 142 143 130 116 101 92 85 82 78 75 71 68 67 63 60 54 52
109 110 118 118 124 125 116 120 131 132 137 141 128 133 138 136 145 144 150 146 141 141 129 113 100 92 87 83 79 76 73 68 64 63 59 54 52 49
112 114 120 119 124 128 130 135 137 138 131 134 136 138 140 144 150 148 145 138 141 121 108 98 94 89 85 82 77 73 70 64 60 56 52 49 49 48
130 135 131 132 133 137 140 143 138 136 138 143 143 143 151 153 147 147 145 131 117 105 99 96 93 88 81 79 74 69 63 61 56 53 49 48 47 46
137 138 142 144 145 147 140 142 144 146 148 149 149 158 159 152 159 140 124 112 104 101 96 94 86 78 70 65 61 58 55 53 49 48 48 46 45 45
145 150 147 148 144 140 145 147 149 151 150 158 161 155 156 153 129 119 109 105 101 94 86 76 67 63 57 52 49 47 45 46 46 43 42 42 42 42
156 154 159 156 155 150 151 154 158 160 161 160 159 153 138 125 115 108 105 100 90 76 69 62 58 53 49 45 40 37 37 38 37 38 38 40 41 42
157 158 156 155 159 157 160 157 161 160 159 156 144 128 116 109 105 101 94 81 71 64 59 55 51 47 42 39 35 34 34 34 34 35 36 38 40 41
159 164 166 163 163 165 159 163 160 166 155 135 120 109 103 99 96 86 73 66 58 54 50 48 44 40 36 33 32 32 33 32 33 35 37 38 39 42
162 163 164 164 167 170 162 169 156 135 121 111 105 99 93 88 79 67 60 57 52 47 44 40 39 36 32 30 30 30 31 32 34 36 39 41 42 43
159 162 165 161 159 164 152 133 121 112 105 100 94 88 80 72 64 56 54 51 47 43 39 35 32 30 28 27 28 27 27 27 27 30 34 39 43 46
156 157 161 148 136 126 118 112 105 100 94 88 81 73 64 59 56 53 48 46 40 38 34 29 29 28 29 29 27 29 29 29 30 31 32 36 42 48
136 132 124 118 111 108 103 98 93 85 80 74 66 59 55 54 53 50 45 40 37 35 32 29 27 27 27 27 30 32 32 31 33 35 36 38 39 45
114 112 105 101 100 96 92 86 78 73 67 63 56 54 53 51 49 46 43 38 37 34 33 31 30 30 29 29 30 32 33 34 36 39 41 43 46 48
100 96 94 92 89 85 77 70 65 63 58 55 53 53 50 48 46 43 40 37 36 34 32 32 31 31 32 34 34 36 37 38 42 44 46 48 50 52
92 91 86 81 75 69 64 62 59 56 53 52 51 50 49 45 42 41 38 35 35 36 36 34 34 36 36 36 37 38 41 43 45 48 51 54 56 58
85 80 73 70 65 60 58 57 54 51 50 49 47 46 44 41 40 39 37 36 36 36 36 36 37 40 42 43 44 45 47 49 50 51 54 57 61 62
82 75 67 64 58 56 55 54 52 50 49 47 46 43 42 41 41 39 39 38 38 38 40 42 44 47 48 49 47 46 47 49 51 54 57 61 65 68
77 71 63 60 57 55 53 52 52 50 48 45 44 42 42 42 42 41 40 40 42 44 46 47 46 46 46 46 47 49 49 52 56 60 63 62 64 69
74 68 59 56 56 55 53 53 52 50 48 45 44 43 43 43 44 45 44 45 48 49 47 43 44 45 47 49 50 52 55 57 59 61 61 63 63 65
72 64 58 55 56 54 52 52 52 50 48 46 45 43 44 43 44 46 47 47 48 48 46 45 47 49 50 52 55 57 60 61 62 63 63 61 62 60

GFSNE_250_spd_090.txt.gz
Wind_Speed
91 90 94 92 91 94 97 98 95 98 95 94 95 99 100 98 95 97 97 94 93 95 94 102 96 111 122 132 135 135 134 137 105 91 81 71 65 58
88 89 89 90 94 96 96 98 96 95 95 98 97 99 100 98 99 101 100 100 96 101 104 107 104 121 128 130 137 134 132 127 102 92 81 70 64 56
93 93 94 96 96 94 95 95 95 97 97 100 102 103 104 102 102 104 102 104 101 108 107 111 122 130 139 138 142 139 133 120 100 87 75 64 57 51
95 96 94 97 96 100 100 98 100 102 104 106 108 107 109 104 108 106 105 108 113 114 109 120 129 138 147 145 139 130 117 104 90 77 63 54 48 46
102 102 103 103 106 106 103 107 109 109 109 108 112 111 110 113 112 112 113 112 109 113 123 129 137 146 145 142 139 129 105 97 80 63 55 49 44 41
103 106 105 106 106 107 109 107 107 110 111 112 113 117 115 117 114 115 116 113 118 125 128 136 146 146 144 146 126 122 104 87 66 55 49 43 39 38
106 106 108 106 110 109 113 112 112 109 115 114 116 119 119 123 119 120 119 123 131 134 134 146 145 142 140 130 118 100 88 74 60 52 45 38 37 37
109 107 105 109 114 117 114 114 117 113 118 123 120 123 124 124 127 125 129 136 138 138 143 144 145 141 135 137 118 94 80 65 55 45 39 35 34 34
117 116 116 116 116 119 120 118 118 119 118 127 127 126 127 131 136 138 141 139 141 140 150 149 144 131 135 107 98 84 68 58 50 42 35 31 30 31
123 124 123 123 122 124 124 123 124 131 131 131 134 134 134 137 141 139 147 151 151 153 149 150 143 135 116 96 84 71 60 52 44 39 33 28 27 28
131 133 131 129 129 126 130 129 135 133 135 139 137 137 142 142 145 151 155 150 146 148 143 135 118 113 95 89 73 61 53 47 40 35 30 27 26 28
143 139 137 136 135 137 137 138 141 143 146 144 141 145 145 151 153 156 151 158 153 144 117 124 125 98 88 75 63 55 47 41 37 34 30 28 28 28
148 147 146 143 144 141 143 143 141 141 141 147 148 145 154 159 158 153 149 143 140 129 136 111 90 87 72 63 55 49 44 37 34 32 31 29 30 31
154 155 155 153 153 151 149 151 154 155 158 157 160 159 160 164 160 152 112 135 137 130 109 93 83 71 59 54 49 45 40 35 31 28 29 30 30 33
162 159 157 160 157 161 157 159 162 160 165 168 160 158 163 148 160 162 150 117 102 97 86 76 67 58 50 48 45 42 38 33 31 28 27 29 30 31
171 170 172 172 166 169 176 176 175 170 164 161 148 154 137 133 123 108 102 95 85 76 67 61 55 51 46 44 41 38 36 34 31 29 28 28 30 32
158 152 153 170 178 180 173 156 142 136 127 118 113 108 106 107 97 90 84 77 68 62 56 51 49 45 43 41 38 36 34 33 31 30 30 31 31 32
135 136 133 134 134 135 133 132 126 120 112 106 96 91 90 81 77 71 67 59 55 51 47 45 43 42 41 38 37 35 34 35 34 34 34 33 33 33
130 131 132 133 131 128 127 121 115 107 97 89 81 79 73 70 63 58 53 50 47 44 43 41 40 41 39 37 35 36 36 36 36 36 38 38 37 39
112 116 116 116 112 109 108 103 90 80 79 74 70 66 63 57 53 50 47 45 43 43 40 40 40 40 38 37 36 36 39 39 39 40 41 44 44 42
89 96 96 99 99 93 87 83 75 70 68 64 61 56 54 50 50 48 48 43 41 42 40 40 39 40 39 40 39 39 40 42 43 43 45 45 45 45
73 78 80 80 81 75 72 72 72 64 60 57 53 50 50 47 47 47 47 41 41 42 41 40 39 41 41 39 40 42 43 43 45 46 47 48 50 51
63 66 65 65 67 64 60 61 64 60 55 52 50 49 49 46 45 46 45 42 42 43 42 41 40 41 41 41 41 43 43 43 42 44 48 51 53 55

GFSNE_250_spd_093.txt.gz
Wind_Speed
81 81 81 80 80 78 80 83 89 87 87 89 90 93 95 96 92 94 91 91 92 92 95 94 95 94 95 94 99 101 103 114 121 129 129 120 100 82
88 87 87 87 86 86 88 85 89 91 89 92 93 92 94 95 96 97 95 97 99 95 95 98 99 99 101 102 101 103 113 122 131 135 132 108 88 79
97 91 93 93 97 88 86 87 90 94 93 93 94 96 93 98 102 102 97 101 101 100 100 99 101 102 104 105 106 110 118 124 131 128 109 98 83 74
102 105 101 105 99 105 101 98 97 98 99 96 97 102 102 105 108 103 102 102 103 104 106 104 104 109 108 107 108 117 124 128 128 130 121 91 77 56
107 112 111 112 107 102 103 101 101 99 99 98 101 104 105 106 105 103 107 104 107 108 108 108 109 107 112 116 118 121 132 149 136 125 106 91 73 53
110 103 106 108 104 103 108 112 107 99 98 102 105 107 105 108 105 103 110 111 110 113 110 114 111 114 119 124 122 129 132 140 133 126 98 82 61 49
108 110 103 102 106 102 101 103 98 100 99 104 104 105 109 108 108 111 109 114 113 115 112 117 115 120 124 131 130 134 137 137 139 122 93 75 54 43
105 104 97 102 101 104 102 103 98 99 103 105 105 108 112 110 110 113 118 110 119 120 119 124 126 134 134 132 131 144 139 139 137 99 89 65 48 42
112 109 109 108 105 107 108 105 106 106 107 108 113 108 110 114 117 119 115 122 123 125 127 132 131 135 136 142 146 137 127 137 116 85 74 57 45 39
117 117 118 118 112 110 112 114 114 110 110 112 113 112 116 119 122 128 123 130 128 131 136 136 136 137 143 149 136 148 128 101 84 76 60 50 43 35
129 129 126 127 127 124 122 117 123 118 112 119 120 126 128 130 131 131 134 137 134 137 141 138 142 144 148 150 138 124 102 82 74 62 53 45 40 34
143 142 139 140 135 135 133 131 127 129 135 128 132 134 135 130 134 133 137 137 134 138 139 144 145 141 138 132 103 95 83 71 63 52 46 41 36 32
146 147 145 139 138 139 142 136 139 135 137 135 134 138 137 136 136 135 136 136 141 143 143 146 140 140 132 106 89 80 68 63 51 45 41 36 34 31
159 154 158 151 145 147 147 149 144 140 142 141 145 141 142 139 139 145 142 141 145 139 142 138 142 125 100 83 72 65 59 53 45 39 37 34 33 31
157 158 156 151 152 153 156 157 151 149 152 147 150 149 148 148 145 144 146 147 151 149 131 122 116 94 77 65 60 56 49 47 41 37 33 32 32 31
173 170 164 161 163 159 159 160 149 153 154 155 159 154 157 147 154 150 146 133 116 114 99 95 83 72 62 56 53 47 44 42 38 37 34 32 30 31
140 137 141 148 153 147 142 150 158 156 150 146 144 145 148 145 133 117 107 102 99 94 79 71 64 56 52 50 47 42 40 39 36 34 33 32 31 30
135 134 134 131 127 124 122 117 121 123 125 126 124 118 113 109 108 103 96 87 79 67 62 57 50 48 46 45 41 38 39 37 35 34 34 34 32 30
112 123 129 133 127 120 120 114 114 116 114 113 112 109 107 105 98 90 78 66 59 54 51 47 44 44 43 41 37 37 37 36 35 35 35 33 32 31
84 88 95 102 107 110 108 108 109 113 113 110 108 104 98 92 83 72 59 53 50 48 47 43 41 42 41 37 36 37 36 36 36 36 35 35 35 35
70 72 75 79 85 89 91 95 96 99 97 93 92 94 89 79 74 63 55 49 45 46 45 42 41 44 41 37 36 36 36 37 37 38 38 38 39 39
60 60 63 66 70 73 77 80 82 84 83 85 83 79 75 66 64 56 52 46 44 46 46 42 46 43 41 38 34 36 37 38 39 40 41 43 43 42
56 55 56 58 60 63 66 66 67 69 74 75 71 68 64 60 55 51 48 44 44 45 45 43 45 45 42 39 36 37 37 39 42 43 44 44 42 41

GFSNE_250_spd_096.txt.gz
Wind_Speed
86 85 81 83 87 85 87 88 86 88 88 85 84 87 88 91 87 87 88 102 97 87 86 87 90 94 89 89 86 86 90 89 94 94 98 103 113 116
88 83 86 86 89 94 88 91 94 88 90 93 95 95 92 89 88 91 94 100 96 92 90 92 98 93 93 89 92 88 87 90 95 99 105 112 117 126
97 89 92 93 96 98 94 90 97 97 96 94 92 92 95 91 98 99 102 103 100 95 94 93 98 97 90 94 94 95 94 97 104 105 106 122 121 129
100 98 95 101 97 101 103 101 99 99 97 101 100 101 103 101 103 104 94 99 99 98 96 100 100 98 97 97 95 97 98 98 106 111 115 124 127 131
105 109 104 105 108 106 108 103 103 104 101 103 103 101 99 104 105 108 101 101 97 95 96 102 103 98 100 97 100 99 105 100 116 114 117 119 128 130
103 103 102 106 106 106 106 105 105 105 107 108 106 108 107 105 107 110 106 99 96 100 106 99 104 98 104 101 104 106 117 115 117 123 122 127 129 126
105 105 107 115 116 113 114 116 116 116 114 112 120 115 109 107 111 105 103 104 103 101 99 101 103 102 104 107 114 120 121 118 120 123 128 131 132 105
114 116 116 115 112 110 113 121 117 116 125 122 119 122 111 98 101 107 102 98 100 99 106 104 105 107 115 120 125 126 125 123 125 127 131 130 127 82
113 115 115 120 121 114 112 112 117 116 118 111 106 106 102 106 92 102 99 104 104 105 113 112 117 113 123 130 128 126 128 127 124 131 128 129 100 70
122 123 121 124 123 122 118 116 115 111 112 111 108 109 102 101 102 97 109 107 111 114 110 118 127 127 129 129 129 131 133 131 134 131 118 97 82 60
128 129 127 122 118 121 122 123 125 121 113 117 113 114 112 111 110 108 109 113 119 118 126 126 126 126 129 130 133 134 132 128 131 117 89 72 61 51
139 138 136 133 133 135 127 126 122 121 126 124 122 115 114 115 116 118 121 123 127 125 126 129 131 129 132 136 135 135 130 122 111 87 77 64 54 45
145 146 144 142 141 136 137 136 135 138 131 128 129 130 126 128 126 124 125 127 126 123 127 131 133 133 136 135 133 129 120 102 90 75 63 54 47 42
153 153 154 155 153 148 150 150 149 140 139 134 133 136 132 133 136 128 126 129 128 132 130 129 131 137 128 126 123 108 87 74 66 59 55 48 42 38
146 152 158 157 154 154 153 147 146 146 145 146 145 140 139 136 136 136 135 139 132 131 128 133 127 119 110 101 97 81 68 59 54 53 48 44 39 36
139 136 139 142 145 151 154 154 153 154 153 152 149 147 146 141 140 139 141 137 128 128 121 111 107 99 93 82 77 66 55 50 50 47 43 41 38 34
134 134 128 126 128 126 132 144 151 151 150 151 152 153 152 140 135 131 125 119 117 107 102 98 91 85 81 75 62 53 48 45 45 41 40 40 37 34
114 121 124 126 123 123 125 126 125 126 128 134 133 132 133 129 124 123 119 116 111 100 97 87 83 79 68 58 52 46 43 42 40 37 39 38 36 33
86 90 95 100 103 107 113 113 121 126 126 126 122 122 119 118 116 116 115 109 106 100 92 86 77 65 55 50 47 42 39 39 38 36 37 36 34 34
70 73 75 77 81 86 94 101 109 116 119 119 117 116 115 111 111 110 105 102 97 90 81 75 63 54 48 49 43 39 38 39 36 35 36 36 36 36
61 62 63 64 66 68 73 78 85 90 96 103 106 106 103 101 100 97 95 89 83 78 70 61 49 44 48 47 40 40 39 39 37 36 36 38 38 38
55 56 56 57 56 58 61 63 65 70 74 78 79 80 82 85 86 84 81 80 76 68 57 46 42 46 47 45 43 42 41 41 38 36 37 39 39 41
48 49 51 51 51 52 53 54 56 58 59 60 64 65 68 68 69 69 66 62 58 50 44 41 44 46 46 45 45 43 42 42 40 39 38 40 42 42

GFSNE_250_spd_099.txt.gz
Wind_Speed
94 91 87 100 92 91 90 90 86 83 80 78 76 77 78 86 84 89 87 88 83 89 91 93 87 87 86 92 90 84 90 81 81 81 80 84 85 88
96 98 88 86 87 84 90 90 91 93 83 81 84 83 89 84 86 87 90 86 90 89 89 81 82 83 91 92 98 91 91 86 83 84 86 85 88 92
81 86 85 85 85 86 88 87 87 89 83 78 80 79 79 80 88 87 91 93 94 89 87 92 93 93 92 100 91 90 93 85 90 86 88 90 95 103
90 95 96 93 93 93 92 94 86 88 87 87 88 85 89 85 93 91 90 98 96 96 93 90 93 94 103 109 101 93 93 93 89 94 99 99 106 110
95 97 104 109 102 98 97 98 100 94 92 91 96 96 94 94 98 102 106 103 99 98 99 102 100 103 112 104 97 91 92 91 92 97 98 106 109 114
96 97 100 99 99 97 93 97 95 97 98 102 103 109 103 108 107 107 102 100 102 102 101 105 108 107 101 90 92 91 90 96 96 103 106 112 113 116
104 110 111 110 107 110 110 107 109 108 105 105 109 111 113 109 109 105 108 109 112 111 110 117 113 103 97 92 93 93 98 101 103 110 116 118 119 121
106 112 112 115 120 119 117 115 110 117 117 109 108 114 117 110 110 118 120 115 112 115 115 104 97 92 95 94 91 95 100 99 110 116 116 120 122 120
114 116 116 104 107 108 105 108 110 109 111 105 107 108 108 115 111 106 111 112 109 98 102 100 91 88 96 98 94 101 104 109 116 119 117 114 112 116
113 116 114 113 116 115 114 112 113 107 100 97 100 103 105 101 106 109 109 108 108 103 97 96 97 97 101 104 103 106 106 117 118 117 120 112 110 114
121 122 124 123 120 116 113 114 115 117 114 114 115 115 111 109 109 111 115 109 110 107 105 109 107 104 104 104 107 112 113 115 117 123 118 107 95 86
127 128 128 133 137 139 137 127 121 117 123 122 119 117 116 115 113 114 114 114 114 111 114 111 108 110 111 116 115 111 110 113 118 114 103 93 81 75
134 134 135 132 131 133 136 134 134 137 136 130 126 123 122 120 118 116 114 116 117 116 121 122 120 116 117 114 116 118 110 114 109 104 95 81 74 71
143 148 147 145 146 145 140 138 140 139 141 139 136 135 136 136 135 132 129 128 126 127 126 120 125 124 122 120 122 119 121 114 100 94 83 75 72 65
150 150 147 148 144 146 147 147 152 152 149 143 142 139 136 135 133 132 129 130 134 130 127 129 128 125 124 119 116 114 105 94 90 82 76 72 67 57
141 144 142 142 143 148 151 145 147 147 146 144 145 148 149 146 145 145 141 139 136 134 130 132 130 124 120 115 108 102 95 87 84 81 73 68 59 50
116 124 133 141 141 137 134 134 139 142 143 146 148 148 147 144 144 145 143 143 136 135 131 122 117 114 108 102 97 96 88 86 82 74 68 61 51 44
94 98 103 109 118 124 128 135 134 131 137 133 136 137 135 136 134 135 133 133 131 125 119 112 111 106 98 98 94 91 87 82 72 65 59 52 45 40
81 84 87 90 92 95 98 103 109 123 126 126 131 129 128 129 127 126 125 125 125 119 112 109 104 101 96 96 93 87 80 68 62 57 52 47 41 37
69 72 74 76 78 79 79 80 84 90 96 106 114 121 125 124 123 121 120 121 117 114 107 102 98 95 95 90 86 79 68 59 56 50 47 44 39 37
60 62 64 66 68 68 67 66 68 71 77 80 88 93 105 104 111 113 115 113 111 106 100 95 94 89 85 79 74 66 55 53 50 47 43 41 39 37
51 55 56 59 60 59 59 57 57 60 62 62 69 75 81 85 91 97 102 102 97 94 91 89 83 79 71 67 60 50 50 48 48 45 41 41 41 38
46 48 50 52 52 51 51 51 52 53 54 54 57 62 68 69 70 77 80 82 81 77 74 70 63 60 54 49 47 46 47 46 47 44 42 43 43 40

GFSNE_250_spd_102.txt.gz
Wind_Speed
72 78 82 81 82 81 81 80 81 86 87 90 83 83 79 79 78 75 78 76 73 74 75 75 76 76 76 76 79 83 82 81 81 83 84 89 79 80
81 85 84 85 86 91 92 92 93 93 98 91 91 92 91 78 82 78 74 75 78 75 78 78 78 76 75 84 82 84 79 79 80 89 94 85 74 74
91 90 91 94 96 96 102 97 90 93 99 100 84 81 74 78 79 78 78 77 75 75 74 74 74 84 85 83 80 79 84 87 93 90 92 80 71 78
95 92 90 92 86 87 88 89 82 80 80 83 88 83 84 84 85 87 79 77 75 79 84 87 86 84 87 87 90 90 93 96 95 93 89 79 79 80
90 96 85 83 83 85 89 91 90 87 87 88 92 90 91 89 86 84 89 91 91 90 82 83 87 94 92 90 89 95 99 95 92 86 85 80 81 86
80 77 82 92 88 85 88 93 97 96 94 94 97 96 95 94 92 90 91 90 86 85 90 90 90 96 92 91 95 97 96 94 89 84 84 82 81 89
81 83 87 92 95 97 95 94 94 96 105 106 104 103 97 92 98 98 91 95 100 103 103 102 98 95 101 99 96 90 96 86 86 78 82 86 90 96
82 88 91 100 104 100 105 110 106 104 103 106 107 103 103 101 98 102 111 118 106 97 94 93 101 96 100 98 90 104 91 80 81 81 88 91 96 96
87 94 97 97 98 103 104 107 109 111 113 115 112 111 109 107 106 104 108 105 110 113 102 99 106 97 89 95 92 91 89 79 85 90 92 98 101 103
91 93 96 103 107 100 103 104 105 108 108 101 99 101 103 105 107 99 94 96 101 102 91 94 85 83 84 91 88 93 89 89 88 92 95 97 103 104
106 108 109 110 110 114 116 112 109 108 108 104 99 95 88 84 86 77 80 84 88 86 86 77 85 89 93 92 97 98 99 97 95 98 105 105 111 110
123 126 124 122 124 123 124 122 119 117 117 115 114 110 106 104 102 101 95 95 95 91 90 95 97 103 103 103 105 101 102 109 114 112 109 107 112 110
125 131 134 137 136 141 141 138 133 131 129 127 127 125 119 114 111 110 109 106 107 110 107 111 115 113 110 109 111 113 112 120 115 109 108 110 108 91
137 139 139 139 139 140 142 142 144 146 141 142 142 135 134 132 132 129 121 123 126 120 121 121 119 124 121 123 125 121 121 110 109 114 108 105 92 87
123 132 139 143 144 141 140 142 144 143 142 143 138 137 135 136 132 128 122 123 127 126 123 121 118 118 118 119 123 124 120 117 115 105 98 92 84 81
98 99 105 113 124 129 131 135 138 140 145 145 145 142 145 141 138 132 128 127 131 132 125 125 126 120 119 118 118 116 119 116 110 100 94 87 84 80
89 88 90 92 97 103 107 112 119 126 135 142 141 140 140 142 145 141 139 137 132 130 131 130 127 123 125 121 121 122 119 112 104 97 92 87 83 79
83 83 82 83 85 88 90 94 98 103 111 124 138 141 141 138 133 138 141 141 136 136 135 133 132 131 129 125 121 118 114 109 100 94 89 86 81 77
74 75 74 74 75 77 79 81 84 88 91 95 102 113 131 135 131 129 125 125 125 125 128 126 124 124 126 122 118 114 108 107 100 96 87 83 77 75
65 65 64 64 65 67 68 70 72 73 76 78 81 90 105 119 120 120 127 128 127 126 126 123 123 124 122 120 114 109 108 105 98 89 80 76 71 63
55 56 56 57 57 58 59 60 62 63 63 66 69 75 82 84 89 104 115 112 121 122 121 123 125 123 118 114 107 104 101 98 89 80 75 70 60 57
47 48 49 50 50 50 50 51 52 53 55 58 60 64 67 70 71 77 84 90 93 102 104 105 105 106 105 103 101 97 92 84 80 73 66 59 55 54
40 40 41 43 43 42 42 43 45 46 47 49 52 55 56 60 61 68 68 72 76 79 85 84 88 88 89 88 86 82 76 69 65 59 52 52 53 50

GFSNE_250_spd_105.txt.gz
Wind_Speed
78 74 75 74 74 73 66 68 64 68 73 73 74 76 74 79 78 77 76 76 79 81 76 79 82 77 67 66 66 65 67 65 66 65 75 72 68 71
74 75 75 73 74 73 71 71 71 74 76 76 79 83 84 83 79 83 85 87 85 88 86 85 71 64 62 64 72 64 63 68 67 75 73 73 73 75
76 77 76 75 73 72 72 76 78 81 86 85 88 87 88 87 91 90 89 90 89 88 79 67 68 72 70 77 71 63 69 75 73 73 74 75 79 81
78 76 75 76 75 79 77 80 85 89 88 90 92 92 91 93 94 96 94 95 88 77 79 76 76 81 73 65 72 77 79 77 72 72 78 84 86 87
70 66 74 77 77 82 83 85 86 88 94 97 96 96 96 94 88 82 82 84 82 82 78 82 84 73 73 79 77 73 73 75 83 89 88 86 83 84
63 69 72 75 78 81 90 88 89 84 84 86 91 84 83 85 87 85 88 89 85 88 87 87 83 84 84 82 77 77 76 85 90 91 86 80 84 73
67 70 75 77 83 88 87 87 84 79 80 85 87 89 92 92 90 90 92 93 94 95 93 96 95 91 83 82 85 85 88 89 88 91 87 78 72 69
73 73 76 80 81 83 85 89 91 92 87 88 89 91 93 95 93 93 94 95 100 100 98 91 91 92 95 95 94 92 96 92 83 79 75 67 67 69
80 83 86 83 83 86 86 89 90 91 96 97 98 96 95 97 97 98 99 99 100 102 102 103 104 103 106 100 100 90 91 86 79 70 70 68 71 74
83 84 87 88 90 93 96 98 99 101 100 99 102 104 105 111 110 106 107 108 108 106 104 103 98 95 94 95 91 85 81 78 69 66 64 68 77 84
85 94 101 99 99 102 99 99 102 105 104 108 103 103 101 96 95 97 97 97 103 103 97 92 86 85 84 85 79 73 74 77 70 72 71 77 86 90
91 96 100 103 106 116 118 113 114 115 116 114 114 117 115 113 109 105 99 92 88 87 86 85 87 86 83 83 84 82 81 80 83 85 86 90 93 97
98 100 107 111 116 119 123 124 127 128 127 128 126 122 119 119 117 118 117 111 109 100 99 94 88 90 94 91 91 91 87 89 95 95 100 100 102 108
111 118 120 123 123 127 130 131 131 132 132 136 136 136 135 131 127 126 123 120 120 118 119 112 106 105 101 100 92 98 103 104 108 109 110 114 113 108
122 121 119 125 131 134 133 133 135 134 134 136 135 135 141 143 139 135 134 132 128 127 123 122 119 117 115 117 117 116 116 119 118 119 118 112 111 107
105 104 106 108 110 113 115 116 120 125 129 131 139 142 142 140 140 142 143 141 136 135 133 130 128 127 124 124 126 129 128 127 123 118 113 111 105 109
101 97 96 95 94 96 97 98 97 98 101 106 110 118 130 140 144 142 141 139 135 137 140 139 136 136 133 132 126 122 116 111 112 111 109 108 108 104
88 87 86 85 83 83 83 83 83 82 83 85 90 96 101 110 118 133 138 141 134 131 138 136 134 131 129 126 124 122 119 118 114 112 111 109 107 105
80 78 77 75 73 71 70 69 70 71 72 74 76 79 84 90 96 101 113 136 138 136 134 130 133 133 130 126 123 120 119 115 110 111 111 109 107 100
70 68 67 65 62 59 58 58 59 61 62 64 66 68 71 75 81 85 94 94 110 129 133 132 134 130 127 126 126 120 115 112 112 111 109 106 102 100
61 60 58 55 53 51 50 49 49 51 53 55 57 60 62 65 68 72 76 79 92 95 112 124 129 125 122 126 122 118 118 117 116 111 110 106 103 101
54 51 49 46 44 43 41 41 41 43 45 47 50 51 53 55 58 61 63 66 73 77 83 94 109 118 120 121 121 117 116 114 111 109 107 104 99 98
46 43 40 38 36 34 34 34 35 36 39 41 44 45 46 48 52 54 56 59 62 63 63 72 78 88 92 99 107 111 108 108 105 104 100 96 89 82

GFSNE_250_spd_108.txt.gz
Wind_Speed
98 97 96 98 100 97 96 94 88 82 78 76 75 77 78 77 71 68 67 67 69 59 70 67 67 69 73 72 75 74 74 70 70 68 59 63 65 64
105 104 104 102 101 100 96 93 83 81 79 78 76 73 76 71 69 70 77 80 76 74 75 70 75 74 77 77 78 78 80 79 75 65 64 65 61 67
106 106 104 101 97 94 93 85 80 81 80 76 75 72 72 72 72 73 79 83 81 76 80 80 81 79 83 83 83 82 75 73 68 71 70 70 64 69
98 97 96 93 88 81 79 81 81 82 82 79 78 78 78 78 76 82 83 84 86 85 84 85 86 88 88 89 86 82 71 69 74 70 65 68 72 65
85 82 81 79 76 78 81 82 82 83 81 80 80 81 83 83 83 87 90 91 90 92 94 92 94 93 90 85 78 71 70 68 74 72 69 76 74 72
73 71 75 76 73 75 79 79 79 80 84 82 83 84 86 86 89 92 90 90 91 91 94 93 90 87 90 86 80 78 73 75 74 77 78 75 75 73
67 70 73 70 72 76 76 78 79 79 82 86 91 89 88 92 95 95 94 95 93 92 90 90 89 89 88 85 86 82 83 81 80 82 86 79 77 82
62 66 67 67 71 74 73 74 72 81 84 85 94 93 93 94 102 104 101 95 98 96 93 89 91 90 91 89 86 85 87 85 84 80 79 84 90 95
61 65 71 75 78 79 77 75 80 80 81 85 89 91 94 98 99 99 97 97 96 95 94 92 90 89 89 86 87 89 89 90 88 91 94 89 83 66
64 67 68 73 78 81 83 87 89 89 89 91 93 91 88 91 97 97 99 98 97 95 93 93 94 95 95 92 94 97 97 97 97 94 89 81 66 63
70 75 76 80 81 83 84 88 93 94 99 101 103 102 100 100 101 98 94 97 97 98 101 101 105 104 101 97 97 93 89 90 86 82 74 69 66 61
80 84 85 86 90 93 97 99 99 103 107 107 107 109 108 107 108 109 109 108 107 98 96 96 94 96 95 91 87 86 82 78 75 76 79 76 70 70
92 93 97 97 100 101 103 106 110 113 112 112 112 115 118 117 116 115 114 114 111 108 109 111 107 102 91 81 80 82 79 76 77 79 84 84 78 75
99 101 104 105 110 113 117 118 118 119 121 122 121 121 122 121 124 127 125 124 123 117 115 114 115 114 109 105 104 90 82 80 79 84 88 88 86 87
103 105 107 110 114 118 122 127 130 134 132 134 134 130 133 131 131 128 127 129 132 128 124 123 120 117 117 115 116 115 115 114 112 109 102 98 95 96
100 101 104 107 110 113 114 114 114 114 116 120 126 130 140 141 136 138 135 130 133 127 127 127 132 128 126 124 121 120 116 114 110 109 107 104 106 107
97 98 100 99 97 98 101 104 108 110 110 109 109 110 115 122 124 132 131 136 130 127 127 131 127 129 130 132 129 127 124 118 117 117 116 115 114 115
95 93 93 95 93 93 94 95 94 94 95 94 92 93 96 99 104 110 114 121 125 134 139 129 133 132 129 124 126 133 128 126 126 122 118 118 116 113
90 91 88 86 85 85 83 82 81 79 79 79 79 79 81 83 86 91 95 98 104 109 120 129 130 135 131 128 126 133 127 124 124 122 117 113 111 106
82 81 79 77 76 74 73 72 70 68 68 68 69 69 71 73 75 78 79 82 88 93 99 105 111 122 128 129 132 133 132 130 125 118 115 112 112 109
73 71 68 67 66 63 60 59 59 58 58 58 59 60 61 62 64 67 70 72 76 81 84 91 95 95 106 115 128 133 130 128 124 118 116 115 111 111
65 62 58 56 53 52 51 50 49 48 48 50 51 52 54 55 57 58 60 63 67 70 74 81 84 88 89 94 101 108 112 116 116 117 117 114 110 109
53 51 48 47 46 45 43 41 41 41 41 42 43 45 46 47 49 51 53 55 59 62 65 68 74 78 79 80 80 86 95 97 100 107 109 110 109 104

GFSNE_250_spd_111.txt.gz
Wind_Speed
105 105 106 104 104 101 97 96 97 95 93 94 93 94 93 93 94 87 86 78 76 73 70 70 65 64 65 64 60 65 64 64 65 65 67 72 69 68
112 111 110 111 110 105 101 101 101 99 99 99 99 97 98 96 94 89 86 81 77 75 77 80 71 64 63 64 67 70 69 71 72 71 72 71 73 70
101 103 108 109 110 111 109 106 106 104 102 102 103 102 101 98 96 88 84 79 78 74 67 67 69 70 69 75 78 79 80 78 79 75 75 77 75 66
91 93 97 97 98 100 103 106 106 105 106 106 104 101 103 98 88 83 80 78 76 71 68 75 72 72 75 76 79 76 78 79 77 80 78 77 73 68
86 88 91 91 92 92 92 94 95 96 97 98 95 93 89 88 82 81 80 79 76 76 73 76 73 78 80 79 81 81 84 85 81 77 76 74 76 69
79 82 83 83 84 85 86 85 84 85 82 80 78 79 80 77 79 81 83 82 82 83 85 84 82 81 79 80 81 84 84 88 86 84 84 83 76 65
69 71 73 74 73 73 74 73 72 73 74 74 75 76 78 80 81 84 85 84 83 83 86 91 92 88 87 90 90 91 88 88 87 84 81 75 69 68
62 63 64 64 64 66 68 67 72 72 71 68 72 76 75 76 78 79 83 86 84 85 88 87 91 94 95 91 92 93 91 92 81 80 81 77 75 75
59 60 60 62 63 65 68 70 74 74 76 72 73 74 77 72 76 81 86 86 85 90 93 92 94 93 92 93 96 99 97 88 87 83 81 78 78 76
55 56 60 63 64 66 70 73 74 76 78 80 81 84 82 84 84 83 82 86 87 88 91 91 93 92 94 92 89 88 86 83 83 83 83 81 80 83
63 66 66 69 72 74 75 76 78 80 82 83 88 90 91 94 94 92 91 93 89 87 87 90 88 88 89 92 92 94 91 87 85 86 85 87 92 89
71 73 74 78 79 80 81 83 83 86 88 89 90 91 95 98 99 99 99 100 101 95 95 96 93 88 87 86 87 87 88 88 85 87 86 83 82 79
80 81 83 85 87 88 91 93 93 94 96 98 100 100 100 103 103 106 109 107 107 104 104 107 105 103 102 99 94 87 86 86 85 82 83 78 76 72
89 91 93 95 97 99 101 102 104 105 107 108 110 112 115 114 115 116 117 116 115 112 114 116 113 112 112 111 109 108 104 103 99 87 81 78 74 73
97 100 103 104 106 107 109 112 116 118 117 116 116 116 117 118 118 121 123 121 118 119 118 119 121 122 122 120 115 113 112 106 104 103 98 95 84 75
104 105 108 109 110 113 113 112 113 112 112 110 109 109 112 114 117 119 123 128 127 125 123 122 120 121 120 122 122 120 118 115 113 110 108 103 98 97
94 94 94 94 96 100 102 103 104 106 106 106 105 106 106 106 109 113 114 118 120 121 124 124 126 123 123 124 121 122 123 122 120 114 113 110 104 103
91 91 92 95 97 98 99 99 99 98 97 95 95 97 98 100 102 104 107 109 109 110 110 110 111 119 124 126 124 122 123 120 120 117 116 111 107 104
91 91 92 92 91 88 87 88 89 90 88 87 88 89 90 91 91 92 94 96 98 100 101 103 109 113 113 114 118 123 124 120 123 116 114 115 110 109
83 81 79 80 79 77 78 78 78 79 78 77 77 77 77 77 78 79 80 82 84 86 88 89 91 97 103 112 112 115 114 118 116 112 112 121 110 113
74 73 71 70 69 69 69 68 67 68 67 66 66 66 66 67 68 69 70 71 72 75 75 77 80 88 90 91 99 112 114 116 116 115 118 118 112 110
64 64 62 61 60 60 59 59 58 57 57 57 57 57 57 57 58 58 59 59 61 62 62 66 70 76 79 84 90 97 99 96 106 111 116 116 113 110
56 55 54 53 52 51 50 49 49 48 48 48 48 48 48 48 48 49 49 51 51 52 56 59 61 67 71 74 79 84 88 90 93 97 99 101 97 95

GFSNE_250_spd_114.txt.gz
Wind_Speed
99 107 111 112 110 110 108 107 107 97 95 95 98 96 93 91 93 93 93 92 88 86 85 82 83 81 78 71 69 65 65 67 67 63 61 59 60 62
94 99 102 106 109 109 110 111 113 112 104 102 100 102 100 99 96 97 96 94 92 91 92 92 88 86 83 76 71 66 68 64 64 66 63 63 64 66
90 94 96 99 102 105 107 109 111 111 109 104 102 102 105 105 106 103 101 100 97 97 95 93 92 86 81 74 71 66 61 62 62 64 63 67 68 71
85 88 91 94 96 99 99 100 101 100 98 96 99 100 99 100 100 99 101 100 97 97 96 90 85 82 78 69 64 59 61 62 65 69 70 72 71 70
82 83 84 89 90 90 91 93 94 91 91 89 89 91 90 90 88 88 90 89 89 90 91 84 79 73 68 64 62 63 67 69 67 70 70 69 69 71
77 79 82 85 86 88 89 89 90 91 91 89 88 88 88 87 84 82 81 80 80 80 79 78 79 71 71 69 69 69 67 70 73 75 73 72 71 74
68 71 74 77 78 80 81 82 83 85 85 84 83 81 79 78 77 76 77 76 76 74 75 76 71 69 71 71 72 76 74 70 75 79 75 73 72 77
60 62 65 68 70 72 74 76 78 77 76 74 73 75 72 75 72 71 72 69 70 74 77 76 75 74 78 77 77 76 79 77 76 75 76 75 79 80
58 60 62 64 65 66 69 70 72 71 71 71 71 70 63 69 69 70 70 69 70 76 75 76 81 80 79 81 81 79 79 79 82 84 83 80 81 82
59 60 61 62 63 65 66 65 67 69 69 70 70 71 71 78 76 72 75 70 70 73 71 71 72 76 76 79 82 82 83 84 84 84 83 83 81 80
62 65 65 65 67 68 66 66 68 70 70 71 74 75 78 79 78 81 80 79 78 78 76 76 75 75 76 82 85 83 85 85 83 85 83 77 76 75
70 70 71 71 72 74 73 73 72 74 75 78 79 80 81 82 85 86 85 84 82 83 86 86 86 88 86 85 83 80 82 82 82 80 80 81 78 78
79 80 80 82 82 82 83 83 82 82 82 83 85 87 88 88 89 89 90 88 88 87 92 96 96 95 93 93 92 92 93 89 86 84 78 78 75 75
87 88 89 90 89 89 90 91 91 90 91 91 92 94 97 99 97 97 97 97 95 94 95 94 94 99 102 100 100 100 98 95 94 90 89 81 77 72
97 97 99 101 101 101 102 102 102 101 101 103 104 106 108 108 108 108 107 107 106 105 105 105 103 104 106 104 102 108 108 106 103 100 97 98 98 95
98 101 104 106 107 109 110 111 111 112 111 112 114 117 118 118 119 119 118 117 115 114 114 114 112 111 110 113 112 109 111 111 108 106 106 105 101 99
91 93 96 98 100 99 99 101 103 103 102 104 106 108 109 112 116 116 121 124 123 121 122 121 121 120 118 115 116 115 115 113 111 110 108 106 103 103
85 87 89 89 91 92 93 94 95 96 98 100 102 102 104 105 105 107 107 108 109 110 110 111 113 111 111 111 110 113 114 112 113 111 111 109 106 102
83 84 85 86 87 88 90 91 93 94 95 96 96 97 98 99 100 102 103 104 104 104 105 108 110 111 110 108 109 109 112 110 108 107 104 106 101 105
82 83 84 83 83 82 82 82 82 83 83 83 84 85 86 87 88 90 91 92 92 93 95 96 98 100 99 101 102 105 109 109 111 113 109 105 101 102
68 67 67 69 69 69 69 70 71 72 72 72 72 72 73 74 75 76 77 78 78 79 80 82 86 87 88 90 90 94 99 101 106 105 102 103 107 109
57 57 57 57 57 57 57 57 57 58 59 59 60 60 61 62 62 63 63 64 65 66 67 70 72 73 74 76 79 85 90 94 98 102 102 101 105 108
51 50 49 49 49 48 48 48 49 49 49 49 50 51 52 52 52 52 53 54 55 56 57 58 58 60 64 67 72 75 76 80 86 92 98 104 104 103

GFSNE_250_spd_117.txt.gz
Wind_Speed
96 93 93 98 104 105 106 111 112 112 108 107 104 102 100 99 99 96 90 89 86 85 85 87 87 85 83 83 80 80 76 74 73 69 68 69 58 57
93 91 92 99 102 102 100 102 105 110 110 111 113 112 111 110 108 105 100 94 94 94 93 92 92 91 91 91 88 85 81 80 76 71 69 68 58 55
82 87 92 97 99 100 100 100 101 102 101 103 108 109 109 112 112 111 105 98 97 97 95 95 95 92 92 95 94 88 83 79 76 72 66 57 52 56
85 88 89 91 93 94 96 97 99 103 104 105 107 104 105 104 102 101 102 99 92 92 93 93 94 93 92 88 88 84 80 75 68 65 60 51 56 57
78 78 80 82 85 89 94 94 96 100 101 101 101 101 100 98 97 96 93 92 87 85 85 83 81 81 82 77 75 78 71 69 62 61 49 46 53 58
69 71 74 78 81 83 86 88 91 93 91 93 90 91 91 91 90 89 89 88 86 85 83 81 78 77 76 75 72 73 66 58 59 56 53 56 61 63
58 62 66 70 73 77 79 82 85 87 88 88 88 87 88 88 90 90 87 86 85 84 82 80 76 75 72 69 67 66 64 63 65 59 59 62 66 68
56 58 59 61 65 71 75 80 82 83 83 85 86 88 88 87 85 82 80 80 80 80 78 73 70 69 70 68 69 70 69 70 67 64 64 65 67 69
57 58 58 59 61 63 66 69 72 75 78 80 81 81 81 82 81 79 77 73 72 76 74 69 69 70 70 70 71 70 70 65 62 66 67 67 66 65
59 59 60 61 63 64 66 67 69 71 72 73 74 75 75 76 74 74 73 73 72 71 72 69 69 66 63 63 62 65 66 69 66 65 69 72 74 72
71 70 67 66 65 64 66 69 71 72 71 71 71 72 73 73 73 73 73 72 71 68 65 63 69 66 65 65 63 63 64 67 71 74 71 70 71 70
79 78 77 77 77 75 74 72 74 74 73 75 75 76 75 75 75 74 74 72 71 75 75 77 81 76 70 68 66 68 67 63 65 69 71 72 73 73
82 84 84 84 84 84 84 82 82 82 82 81 81 80 79 78 78 77 76 76 75 74 78 79 81 81 77 77 74 74 77 73 74 73 71 69 71 71
77 80 84 86 88 89 90 91 91 91 91 91 90 90 90 89 87 86 86 84 83 83 84 82 81 84 83 82 83 84 82 81 80 79 79 80 79 78
75 80 83 85 87 89 91 94 95 96 98 99 98 98 99 99 98 96 93 92 91 89 89 92 90 90 87 87 89 88 93 91 91 89 88 86 85 85
73 79 82 85 87 88 89 91 92 93 95 98 102 105 106 106 106 106 104 102 98 97 96 97 97 97 97 96 95 93 96 96 93 94 94 93 93 92
70 73 77 79 81 83 85 87 89 89 89 90 93 97 100 103 108 110 110 111 108 108 108 108 108 106 103 103 101 101 99 98 98 99 97 94 94 93
70 72 73 73 74 75 77 79 80 82 83 83 85 87 89 91 93 97 99 100 103 106 109 115 112 113 114 112 110 110 110 109 107 107 104 103 100 97
66 67 67 68 69 70 71 72 74 75 76 78 81 83 86 88 90 91 92 92 94 97 100 102 102 101 102 105 115 117 118 118 117 116 112 109 106 104
63 64 64 64 64 65 65 65 66 67 68 69 70 72 73 75 78 80 84 86 89 92 96 98 99 100 99 100 100 102 102 109 115 118 117 115 110 109
58 58 57 57 58 59 60 61 61 62 62 63 64 65 66 67 69 70 72 74 76 79 82 85 87 91 94 96 97 101 101 100 104 105 107 107 106 105
50 49 49 48 48 48 49 50 52 53 54 54 55 56 57 58 60 61 62 63 65 67 69 70 72 75 78 81 85 90 94 95 99 102 102 100 99 98
46 44 43 43 43 42 43 43 44 45 46 47 48 49 49 50 51 52 53 54 55 56 58 60 61 63 65 67 70 76 81 84 88 90 92 93 95 96

GFSNE_250_spd_120.txt.gz
Wind_Speed
104 106 105 100 99 97 98 99 99 103 102 103 108 112 116 112 112 111 107 101 96 92 91 89 89 88 85 83 82 82 80 78 77 79 81 80 77 74
97 96 97 98 96 98 93 97 100 99 101 103 105 107 109 113 112 115 111 110 108 102 99 97 94 93 91 91 90 87 83 84 85 84 84 82 80 78
92 92 90 91 87 83 90 88 83 84 88 98 105 106 106 107 107 110 111 114 106 107 106 105 103 100 98 97 96 93 90 88 91 90 85 82 79 78
76 80 76 74 79 75 79 86 88 87 93 97 104 105 108 107 108 107 106 109 106 103 103 103 103 102 95 94 90 88 88 85 85 83 80 79 74 69
65 67 70 72 74 78 83 87 89 91 95 95 95 99 103 103 104 106 108 108 107 104 101 98 95 94 89 89 82 85 76 74 74 74 73 72 68 64
76 78 81 82 82 85 85 83 87 88 85 86 88 94 96 96 96 97 99 100 102 102 98 97 91 87 84 82 79 76 73 72 71 71 66 67 63 56
66 68 71 72 73 77 79 79 79 80 83 86 87 85 86 89 89 89 89 89 90 92 90 87 85 83 82 80 75 75 75 73 70 71 66 64 62 57
66 69 70 70 72 73 73 73 72 73 73 73 76 82 85 85 82 83 83 85 87 87 87 86 82 82 77 80 76 79 73 73 69 68 62 67 55 52
66 67 68 68 69 71 72 72 70 68 67 68 70 71 73 77 80 80 80 80 82 85 82 81 80 79 77 77 75 72 69 67 64 63 64 59 62 57
68 69 70 71 71 72 71 70 71 73 71 69 69 70 70 72 73 75 77 77 78 79 78 76 78 75 75 73 72 71 67 66 65 65 62 61 62 66
73 73 73 75 75 75 75 75 75 72 68 68 71 73 72 71 71 71 72 71 72 73 75 69 71 69 69 68 69 67 66 64 67 70 69 66 67 70
76 77 77 79 79 78 77 78 80 80 77 74 73 71 70 73 73 73 73 71 71 70 73 70 68 68 68 70 70 67 66 65 66 67 63 62 60 59
75 77 77 78 79 79 79 80 82 83 83 82 80 79 79 76 76 74 73 73 72 69 72 68 67 69 68 68 68 68 62 59 59 60 57 61 58 55
69 72 75 76 78 81 82 83 84 84 85 87 87 87 87 85 83 82 80 78 76 75 76 75 71 71 68 65 68 67 67 66 65 65 61 61 60 57
65 68 71 76 79 81 82 84 85 87 88 89 90 92 93 93 92 91 88 86 85 84 82 81 78 77 74 71 68 79 75 72 75 77 77 72 71 75
61 64 67 71 75 79 81 82 83 85 87 87 88 90 93 95 96 95 95 94 92 92 91 91 89 85 83 79 80 79 85 83 82 86 85 82 76 74
56 60 64 68 72 75 77 79 79 79 79 80 82 85 88 90 93 95 95 96 96 98 99 98 97 96 94 92 89 87 91 90 90 87 85 84 83 79
52 53 56 60 63 67 69 71 73 75 76 77 78 79 81 83 85 89 91 93 94 96 98 100 101 103 102 101 99 98 96 97 98 99 96 91 88 86
51 53 55 56 58 59 59 59 60 61 63 66 71 74 77 81 83 85 85 85 88 91 94 97 96 96 102 107 109 104 102 100 100 98 97 94 91 90
54 57 57 56 57 57 56 57 57 57 57 58 60 63 65 69 73 75 78 80 83 86 89 90 92 92 90 98 109 112 112 110 108 105 103 102 97 96
55 53 53 52 51 50 51 52 52 52 52 53 53 53 55 57 60 63 67 69 71 74 79 83 86 87 87 87 90 103 112 116 119 118 117 114 110 105
52 50 49 48 47 46 45 45 44 45 45 46 46 47 48 49 51 53 55 57 61 64 68 70 73 77 80 84 89 93 93 97 108 118 121 121 119 116
52 49 46 44 42 40 41 40 39 39 39 40 41 42 42 43 43 45 46 49 51 54 56 60 63 66 69 73 77 82 86 90 92 95 103 109 110 114

GFSNE_250_spd_123.txt.gz
Wind_Speed
64 72 76 84 88 90 101 101 104 105 107 105 106 108 108 105 103 103 104 107 108 113 113 113 111 104 95 92 89 87 83 82 79 81 78 78 77 75
59 61 70 76 81 91 96 95 95 96 101 103 102 102 105 106 106 105 105 106 110 110 111 111 111 111 106 101 98 96 93 87 85 83 81 81 83 84
56 64 71 81 85 91 94 96 94 93 93 95 94 96 103 103 100 102 106 108 106 108 111 111 108 106 105 105 104 99 96 90 90 92 87 90 89 87
51 63 71 81 87 90 92 93 84 84 80 78 76 80 85 86 92 94 94 98 104 110 110 109 110 105 101 105 103 100 97 94 94 94 91 92 86 84
50 52 56 65 80 84 83 77 73 72 73 75 80 81 80 81 85 90 95 97 99 100 103 108 109 106 103 101 99 93 86 87 89 89 84 81 79 77
52 55 58 63 67 71 74 76 80 84 79 75 77 81 82 84 87 92 97 97 97 97 98 100 101 102 102 98 98 101 95 90 86 86 80 80 77 75
57 60 63 66 68 72 76 79 79 86 86 85 85 86 88 90 90 89 89 90 89 90 94 95 94 94 95 93 90 92 92 84 82 80 81 77 73 67
61 64 67 69 72 73 74 76 76 78 80 79 80 82 82 81 82 83 82 86 85 86 82 83 84 87 87 85 83 81 82 80 80 79 76 71 69 67
62 65 69 71 72 74 76 78 79 79 78 78 80 81 80 78 81 81 79 79 79 81 78 82 82 81 81 82 81 77 75 75 74 76 74 72 71 68
69 70 68 70 73 75 76 77 79 80 81 80 79 79 78 80 77 75 75 73 74 76 74 73 79 75 76 78 77 76 74 72 70 72 71 69 66 63
64 65 68 70 71 75 78 79 80 81 79 79 81 82 82 79 76 72 72 71 71 71 71 68 71 69 71 72 73 72 73 72 69 67 67 66 61 64
62 64 64 68 72 73 76 79 82 85 83 81 81 83 84 83 80 76 73 71 70 69 72 65 67 67 67 68 69 67 68 67 66 67 67 70 67 68
58 59 61 64 69 72 74 76 78 82 84 84 85 85 85 84 84 82 79 77 73 68 73 67 68 68 66 67 67 67 67 66 66 66 70 71 67 68
58 59 60 61 62 66 69 73 77 79 82 84 85 87 87 88 88 87 85 83 80 77 77 73 68 69 68 68 69 67 66 67 65 65 67 69 66 65
59 59 58 58 60 62 64 67 72 77 81 83 84 85 85 87 88 89 89 89 86 86 84 81 74 73 70 68 70 73 67 69 70 70 68 70 71 66
60 58 56 56 57 59 62 63 66 70 75 79 82 83 83 83 84 85 84 86 87 92 90 89 85 80 77 73 70 73 74 69 70 71 71 72 71 70
60 58 56 55 55 54 56 59 62 65 68 70 73 77 79 81 82 82 82 83 82 86 90 91 90 88 85 82 78 76 79 78 75 72 70 69 72 72
61 58 54 53 52 53 54 56 56 57 59 62 65 67 70 72 76 80 80 79 80 83 86 87 89 92 92 91 89 87 83 84 82 79 74 71 69 73
62 56 54 54 55 54 55 56 55 54 55 55 56 58 61 64 66 68 71 75 79 80 82 85 86 87 91 96 96 93 91 90 92 87 85 78 78 78
61 56 55 54 54 52 51 51 50 51 50 49 50 51 52 53 56 61 65 65 67 74 80 82 82 82 85 91 96 101 100 98 96 95 93 91 87 85
61 56 55 52 50 48 47 46 46 47 46 45 45 46 46 48 50 51 53 57 61 65 68 73 77 79 81 83 90 99 102 105 104 101 101 99 97 93
58 56 53 51 48 46 44 44 43 41 40 39 38 39 40 41 41 44 47 49 52 55 59 63 67 71 77 81 86 92 96 99 104 108 107 104 103 100
57 54 51 48 45 43 42 40 37 36 35 35 34 34 34 35 36 37 39 41 44 48 50 54 59 63 68 73 78 85 90 91 94 101 109 111 108 107